| time (UTC) | temp C | wind direction | speed KPH | gust KPH | rain 1hr cm | rain 24hr cm | rain mn cm | humidity % | barometer mb |
| 20260831220643 | 33 | 134 | 4.8 | 14.5 | 0.00 | 0.00 | 0.00 | 67 | 1011.8 |
| 20260831220543 | 32 | 90 | 4.8 | 14.5 | 0.00 | 0.00 | 0.00 | 67 | 1011.7 |
| 20260831220442 | 32 | 90 | 6.4 | 14.5 | 0.00 | 0.00 | 0.00 | 67 | 1011.8 |
| 20260831220342 | 32 | 104 | 6.4 | 14.5 | 0.00 | 0.00 | 0.00 | 68 | 1011.8 |
| 20260831220242 | 32 | 107 | 8.0 | 14.5 | 0.00 | 0.00 | 0.00 | 67 | 1011.8 |
| 20260831220142 | 32 | 114 | 8.0 | 14.5 | 0.00 | 0.00 | 0.00 | 67 | 1011.8 |
| 20260831220042 | 32 | 117 | 6.4 | 14.5 | 0.00 | 0.00 | 0.00 | 68 | 1011.8 |
| 20260831215943 | 32 | 106 | 6.4 | 14.5 | 0.00 | 0.00 | 0.00 | 68 | 1011.9 |
| 20260831215842 | 32 | 99 | 6.4 | 14.5 | 0.00 | 0.00 | 0.00 | 67 | 1011.9 |
| 20260831215742 | 32 | 111 | 6.4 | 14.5 | 0.00 | 0.00 | 0.00 | 68 | 1011.8 |
| 20260831215643 | 32 | 114 | 6.4 | 11.3 | 0.00 | 0.00 | 0.00 | 67 | 1011.8 |
| 20260831215543 | 33 | 111 | 6.4 | 11.3 | 0.00 | 0.00 | 0.00 | 68 | 1011.8 |
| 20260831215442 | 32 | 151 | 4.8 | 11.3 | 0.00 | 0.00 | 0.00 | 69 | 1011.8 |
| 20260831215342 | 32 | 159 | 3.2 | 11.3 | 0.00 | 0.00 | 0.00 | 69 | 1011.8 |
| 20260831215244 | 32 | 130 | 3.2 | 11.3 | 0.00 | 0.00 | 0.00 | 69 | 1011.7 |
| 20260831215142 | 32 | 117 | 4.8 | 11.3 | 0.00 | 0.00 | 0.00 | 68 | 1011.8 |
| 20260831215041 | 32 | 172 | 6.4 | 14.5 | 0.00 | 0.00 | 0.00 | 69 | 1011.8 |
| 20260831214943 | 32 | 107 | 6.4 | 14.5 | 0.00 | 0.00 | 0.00 | 70 | 1011.8 |
| 20260831214842 | 32 | 134 | 6.4 | 14.5 | 0.00 | 0.00 | 0.00 | 71 | 1011.9 |
| 20260831214742 | 32 | 90 | 6.4 | 14.5 | 0.00 | 0.00 | 0.00 | 70 | 1011.9 |
| 20260831214642 | 32 | 82 | 8.0 | 14.5 | 0.00 | 0.00 | 0.00 | 71 | 1011.9 |
| 20260831214544 | 32 | 104 | 8.0 | 14.5 | 0.00 | 0.00 | 0.00 | 71 | 1011.9 |
| 20260831214442 | 32 | 107 | 6.4 | 14.5 | 0.00 | 0.00 | 0.00 | 72 | 1011.9 |
| 20260831214342 | 32 | 86 | 6.4 | 14.5 | 0.00 | 0.00 | 0.00 | 71 | 1011.9 |
| 20260831214242 | 32 | 107 | 9.7 | 14.5 | 0.00 | 0.00 | 0.00 | 71 | 1011.9 |
| 20260831214142 | 32 | 116 | 8.0 | 14.5 | 0.00 | 0.00 | 0.00 | 71 | 1011.9 |
| 20260831214042 | 32 | 111 | 6.4 | 11.3 | 0.00 | 0.00 | 0.00 | 71 | 1011.9 |
| 20260831213943 | 32 | 117 | 6.4 | 11.3 | 0.00 | 0.00 | 0.00 | 71 | 1012.0 |
| 20260831213843 | 32 | 116 | 4.8 | 11.3 | 0.00 | 0.00 | 0.00 | 70 | 1012.0 |
| 20260831213741 | 32 | 97 | 4.8 | 11.3 | 0.00 | 0.00 | 0.00 | 70 | 1012.0 |
| 20260831213641 | 32 | 159 | 6.4 | 11.3 | 0.00 | 0.00 | 0.00 | 70 | 1012.0 |
| 20260831213543 | 32 | 162 | 6.4 | 11.3 | 0.00 | 0.00 | 0.00 | 70 | 1011.9 |
| 20260831213442 | 32 | 155 | 6.4 | 11.3 | 0.00 | 0.00 | 0.00 | 70 | 1012.0 |
| 20260831213341 | 32 | 138 | 8.0 | 11.3 | 0.00 | 0.00 | 0.00 | 70 | 1012.0 |
| 20260831213241 | 32 | 144 | 6.4 | 11.3 | 0.00 | 0.00 | 0.00 | 71 | 1011.9 |
| 20260831213141 | 32 | 162 | 3.2 | 8.0 | 0.00 | 0.00 | 0.00 | 71 | 1012.0 |
| 20260831213041 | 32 | 121 | 0.0 | 6.4 | 0.00 | 0.00 | 0.00 | 72 | 1012.1 |
| 20260831212942 | 32 | 138 | 1.6 | 6.4 | 0.00 | 0.00 | 0.00 | 72 | 1012.1 |
| 20260831212842 | 32 | 138 | 3.2 | 6.4 | 0.00 | 0.00 | 0.00 | 72 | 1012.1 |
| 20260831212741 | 32 | 145 | 3.2 | 8.0 | 0.00 | 0.00 | 0.00 | 72 | 1012.1 |
| 20260831212643 | 32 | 114 | 3.2 | 8.0 | 0.00 | 0.00 | 0.00 | 72 | 1012.1 |
| 20260831212542 | 32 | 152 | 3.2 | 8.0 | 0.00 | 0.00 | 0.00 | 72 | 1012.2 |
| 20260831212442 | 32 | 123 | 4.8 | 8.0 | 0.00 | 0.00 | 0.00 | 72 | 1012.1 |
| 20260831212341 | 32 | 134 | 3.2 | 8.0 | 0.00 | 0.00 | 0.00 | 72 | 1012.2 |
| 20260831212241 | 32 | 161 | 3.2 | 8.0 | 0.00 | 0.00 | 0.00 | 72 | 1012.2 |
| 20260831212142 | 32 | 193 | 4.8 | 8.0 | 0.00 | 0.00 | 0.00 | 72 | 1012.3 |
| 20260831212041 | 32 | 152 | 3.2 | 8.0 | 0.00 | 0.00 | 0.00 | 73 | 1012.2 |
| 20260831211941 | 31 | 106 | 3.2 | 8.0 | 0.00 | 0.00 | 0.00 | 73 | 1012.2 |
| 20260831211841 | 31 | 147 | 4.8 | 8.0 | 0.00 | 0.00 | 0.00 | 73 | 1012.2 |
| 20260831211741 | 31 | 134 | 4.8 | 6.4 | 0.00 | 0.00 | 0.00 | 73 | 1012.3 |
| 20260831211642 | 31 | 131 | 4.8 | 6.4 | 0.00 | 0.00 | 0.00 | 74 | 1012.3 |
| 20260831211537 | 31 | 168 | 4.8 | 6.4 | 0.00 | 0.00 | 0.00 | 74 | 1012.3 |
| 20260831211433 | 31 | 180 | 3.2 | 6.4 | 0.00 | 0.00 | 0.00 | 75 | 1012.3 |
| 20260831211332 | 31 | 96 | 3.2 | 8.0 | 0.00 | 0.00 | 0.00 | 75 | 1012.3 |
| 20260831211230 | 31 | 169 | 4.8 | 8.0 | 0.00 | 0.00 | 0.00 | 75 | 1012.4 |
| 20260831211132 | 31 | 138 | 3.2 | 8.0 | 0.00 | 0.00 | 0.00 | 75 | 1012.4 |
| 20260831211033 | 31 | 141 | 3.2 | 8.0 | 0.00 | 0.00 | 0.00 | 75 | 1012.4 |
| 20260831210931 | 31 | 107 | 3.2 | 8.0 | 0.00 | 0.00 | 0.00 | 75 | 1012.4 |
| 20260831210831 | 31 | 141 | 3.2 | 8.0 | 0.00 | 0.00 | 0.00 | 76 | 1012.4 |
| 20260831210732 | 31 | 96 | 3.2 | 8.0 | 0.00 | 0.00 | 0.00 | 76 | 1012.4 |
| 20260831210632 | 31 | 140 | 3.2 | 8.0 | 0.00 | 0.00 | 0.00 | 76 | 1012.4 |
| 20260831210531 | 31 | 133 | 3.2 | 8.0 | 0.00 | 0.00 | 0.00 | 76 | 1012.4 |
| 20260831210434 | 31 | 151 | 4.8 | 8.0 | 0.00 | 0.00 | 0.00 | 75 | 1012.4 |
| 20260831210332 | 31 | 159 | 3.2 | 8.0 | 0.00 | 0.00 | 0.00 | 75 | 1012.4 |
| 20260831210231 | 31 | 130 | 3.2 | 6.4 | 0.00 | 0.00 | 0.00 | 76 | 1012.5 |
| 20260831210132 | 31 | 171 | 3.2 | 6.4 | 0.00 | 0.00 | 0.00 | 76 | 1012.5 |
| 20260831210031 | 31 | 183 | 4.8 | 6.4 | 0.00 | 0.00 | 0.00 | 76 | 1012.5 |
| 20260831205931 | 30 | 204 | 4.8 | 6.4 | 0.00 | 0.00 | 0.00 | 76 | 1012.5 |
| 20260831205831 | 30 | 247 | 3.2 | 6.4 | 0.00 | 0.00 | 0.00 | 77 | 1012.5 |
| 20260831205733 | 30 | 247 | 3.2 | 6.4 | 0.00 | 0.00 | 0.00 | 77 | 1012.5 |
| 20260831205631 | 30 | 189 | 1.6 | 8.0 | 0.00 | 0.00 | 0.00 | 78 | 1012.5 |
| 20260831205531 | 30 | 148 | 1.6 | 8.0 | 0.00 | 0.00 | 0.00 | 78 | 1012.6 |
| 20260831205433 | 30 | 137 | 0.0 | 8.0 | 0.00 | 0.00 | 0.00 | 78 | 1012.6 |
| 20260831205331 | 30 | 137 | 0.0 | 8.0 | 0.00 | 0.00 | 0.00 | 79 | 1012.7 |
| 20260831205231 | 30 | 137 | 1.6 | 8.0 | 0.00 | 0.00 | 0.00 | 79 | 1012.6 |
| 20260831205131 | 30 | 137 | 3.2 | 8.0 | 0.00 | 0.00 | 0.00 | 78 | 1012.6 |
| 20260831205033 | 30 | 137 | 3.2 | 8.0 | 0.00 | 0.00 | 0.00 | 78 | 1012.6 |
| 20260831204931 | 30 | 121 | 4.8 | 8.0 | 0.00 | 0.00 | 0.00 | 77 | 1012.6 |
| 20260831204832 | 30 | 124 | 4.8 | 8.0 | 0.00 | 0.00 | 0.00 | 77 | 1012.6 |
| 20260831204732 | 30 | 159 | 4.8 | 8.0 | 0.00 | 0.00 | 0.00 | 77 | 1012.6 |
| 20260831204632 | 30 | 144 | 3.2 | 8.0 | 0.00 | 0.00 | 0.00 | 77 | 1012.6 |
| 20260831204531 | 30 | 149 | 3.2 | 8.0 | 0.00 | 0.00 | 0.00 | 77 | 1012.6 |
| 20260831204431 | 30 | 130 | 3.2 | 9.7 | 0.00 | 0.00 | 0.00 | 77 | 1012.7 |
| 20260831204331 | 30 | 86 | 3.2 | 14.5 | 0.00 | 0.00 | 0.00 | 76 | 1012.7 |
| 20260831204231 | 30 | 83 | 3.2 | 14.5 | 0.00 | 0.00 | 0.00 | 76 | 1012.6 |
| 20260831204131 | 30 | 124 | 1.6 | 17.7 | 0.00 | 0.00 | 0.00 | 77 | 1012.7 |
| 20260831204032 | 30 | 99 | 1.6 | 17.7 | 0.00 | 0.00 | 0.00 | 77 | 1012.6 |
| 20260831203932 | 30 | 99 | 3.2 | 17.7 | 0.00 | 0.00 | 0.00 | 77 | 1012.6 |
| 20260831203832 | 30 | 99 | 4.8 | 17.7 | 0.00 | 0.00 | 0.00 | 77 | 1012.7 |
| 20260831203732 | 30 | 104 | 6.4 | 17.7 | 0.00 | 0.00 | 0.00 | 77 | 1012.7 |
| 20260831203632 | 29 | 72 | 6.4 | 17.7 | 0.00 | 0.00 | 0.00 | 77 | 1012.7 |
| 20260831203532 | 29 | 86 | 9.7 | 17.7 | 0.00 | 0.00 | 0.00 | 77 | 1012.7 |
| 20260831203432 | 29 | 85 | 9.7 | 17.7 | 0.00 | 0.00 | 0.00 | 78 | 1012.7 |
| 20260831203331 | 29 | 89 | 9.7 | 17.7 | 0.00 | 0.00 | 0.00 | 78 | 1012.7 |
| 20260831203230 | 29 | 104 | 8.0 | 17.7 | 0.00 | 0.00 | 0.00 | 78 | 1012.8 |
| 20260831203131 | 29 | 104 | 6.4 | 17.7 | 0.00 | 0.00 | 0.00 | 79 | 1012.8 |
| 20260831203032 | 29 | 90 | 6.4 | 17.7 | 0.00 | 0.00 | 0.00 | 80 | 1012.8 |
| 20260831202932 | 29 | 87 | 6.4 | 17.7 | 0.00 | 0.00 | 0.00 | 79 | 1012.8 |
| 20260831202832 | 29 | 93 | 8.0 | 17.7 | 0.00 | 0.00 | 0.00 | 79 | 1012.9 |
| 20260831202733 | 29 | 97 | 8.0 | 17.7 | 0.00 | 0.00 | 0.00 | 79 | 1012.9 |
| 20260831202633 | 29 | 90 | 8.0 | 17.7 | 0.00 | 0.00 | 0.00 | 79 | 1012.9 |
| 20260831202532 | 29 | 87 | 8.0 | 17.7 | 0.00 | 0.00 | 0.00 | 79 | 1012.9 |
| 20260831202430 | 29 | 94 | 11.3 | 17.7 | 0.00 | 0.00 | 0.00 | 78 | 1012.9 |
| 20260831202331 | 29 | 104 | 11.3 | 17.7 | 0.00 | 0.00 | 0.00 | 79 | 1012.9 |
| 20260831202232 | 29 | 120 | 6.4 | 19.3 | 0.00 | 0.00 | 0.00 | 80 | 1012.9 |
| 20260831202131 | 29 | 137 | 4.8 | 19.3 | 0.00 | 0.00 | 0.00 | 81 | 1012.9 |
| 20260831202032 | 29 | 80 | 8.0 | 19.3 | 0.00 | 0.00 | 0.00 | 80 | 1012.9 |
| 20260831201931 | 29 | 110 | 9.7 | 24.1 | 0.00 | 0.00 | 0.00 | 79 | 1012.9 |
| 20260831201830 | 29 | 97 | 11.3 | 24.1 | 0.00 | 0.00 | 0.00 | 79 | 1012.9 |
| 20260831201731 | 29 | 114 | 9.7 | 24.1 | 0.00 | 0.00 | 0.00 | 79 | 1013.1 |
| 20260831201633 | 29 | 93 | 8.0 | 24.1 | 0.00 | 0.00 | 0.00 | 79 | 1013.0 |
| 20260831201531 | 29 | 99 | 9.7 | 24.1 | 0.00 | 0.00 | 0.00 | 79 | 1013.1 |
| 20260831201431 | 29 | 138 | 11.3 | 24.1 | 0.00 | 0.00 | 0.00 | 79 | 1013.1 |
| 20260831201332 | 29 | 100 | 11.3 | 24.1 | 0.00 | 0.00 | 0.00 | 78 | 1013.1 |
| 20260831201230 | 30 | 78 | 9.7 | 24.1 | 0.00 | 0.00 | 0.00 | 77 | 1013.1 |
| 20260831201131 | 30 | 61 | 14.5 | 24.1 | 0.00 | 0.00 | 0.00 | 77 | 1013.1 |
| 20260831201030 | 30 | 75 | 14.5 | 24.1 | 0.00 | 0.00 | 0.00 | 76 | 1013.2 |
| 20260831200933 | 30 | 92 | 11.3 | 20.9 | 0.00 | 0.00 | 0.00 | 76 | 1013.2 |
| 20260831200832 | 31 | 116 | 11.3 | 20.9 | 0.00 | 0.00 | 0.00 | 76 | 1013.2 |
| 20260831200730 | 31 | 82 | 11.3 | 20.9 | 0.00 | 0.00 | 0.00 | 73 | 1013.1 |
| 20260831200632 | 31 | 137 | 9.7 | 19.3 | 0.00 | 0.00 | 0.00 | 72 | 1013.1 |
| 20260831200532 | 31 | 164 | 9.7 | 22.5 | 0.00 | 0.00 | 0.00 | 72 | 1013.2 |
| 20260831200430 | 31 | 110 | 9.7 | 22.5 | 0.00 | 0.00 | 0.00 | 72 | 1013.1 |
| 20260831200328 | 31 | 124 | 11.3 | 22.5 | 0.00 | 0.00 | 0.00 | 71 | 1013.2 |
| 20260831200226 | 32 | 147 | 9.7 | 22.5 | 0.00 | 0.00 | 0.00 | 71 | 1013.1 |
| 20260831200124 | 32 | 120 | 9.7 | 22.5 | 0.00 | 0.00 | 0.00 | 70 | 1013.1 |
| 20260831200023 | 32 | 171 | 11.3 | 22.5 | 0.00 | 0.00 | 0.00 | 69 | 1013.1 |
| 20260831195922 | 32 | 133 | 11.3 | 22.5 | 0.00 | 0.00 | 0.00 | 68 | 1013.1 |
| 20260831195820 | 32 | 134 | 11.3 | 22.5 | 0.00 | 0.00 | 0.00 | 68 | 1013.1 |
| 20260831195718 | 32 | 151 | 14.5 | 22.5 | 0.00 | 0.00 | 0.00 | 67 | 1013.0 |
| 20260831195617 | 32 | 130 | 14.5 | 22.5 | 0.00 | 0.00 | 0.00 | 67 | 1013.1 |
| 20260831195517 | 32 | 93 | 9.7 | 19.3 | 0.00 | 0.00 | 0.00 | 67 | 1013.1 |
| 20260831195414 | 32 | 142 | 8.0 | 19.3 | 0.00 | 0.00 | 0.00 | 67 | 1013.2 |
| 20260831195313 | 32 | 79 | 8.0 | 19.3 | 0.00 | 0.00 | 0.00 | 67 | 1013.1 |
| 20260831195212 | 32 | 127 | 8.0 | 17.7 | 0.00 | 0.00 | 0.00 | 67 | 1013.1 |
| 20260831195110 | 32 | 142 | 9.7 | 17.7 | 0.00 | 0.00 | 0.00 | 68 | 1013.1 |
| 20260831195009 | 32 | 213 | 8.0 | 17.7 | 0.00 | 0.00 | 0.00 | 68 | 1013.2 |
| 20260831194908 | 32 | 220 | 6.4 | 17.7 | 0.00 | 0.00 | 0.00 | 69 | 1013.1 |
| 20260831194806 | 32 | 135 | 8.0 | 17.7 | 0.00 | 0.00 | 0.00 | 68 | 1013.2 |
| 20260831194703 | 32 | 151 | 9.7 | 19.3 | 0.00 | 0.00 | 0.00 | 68 | 1013.1 |
| 20260831194603 | 32 | 172 | 8.0 | 19.3 | 0.00 | 0.00 | 0.00 | 69 | 1013.2 |
| 20260831194502 | 32 | 134 | 8.0 | 19.3 | 0.00 | 0.00 | 0.00 | 68 | 1013.2 |
| 20260831194402 | 32 | 147 | 9.7 | 20.9 | 0.00 | 0.00 | 0.00 | 67 | 1013.3 |
| 20260831194303 | 32 | 96 | 9.7 | 22.5 | 0.00 | 0.00 | 0.00 | 68 | 1013.2 |
| 20260831194202 | 33 | 110 | 9.7 | 24.1 | 0.00 | 0.00 | 0.00 | 67 | 1013.3 |
| 20260831194102 | 33 | 47 | 9.7 | 24.1 | 0.00 | 0.00 | 0.00 | 67 | 1013.3 |
| 20260831194003 | 33 | 217 | 9.7 | 24.1 | 0.00 | 0.00 | 0.00 | 66 | 1013.2 |
| 20260831193903 | 33 | 148 | 12.9 | 24.1 | 0.00 | 0.00 | 0.00 | 66 | 1013.2 |
| 20260831193802 | 33 | 138 | 11.3 | 24.1 | 0.00 | 0.00 | 0.00 | 65 | 1013.1 |
| 20260831193702 | 33 | 72 | 9.7 | 24.1 | 0.00 | 0.00 | 0.00 | 65 | 1013.2 |
| 20260831193604 | 34 | 124 | 12.9 | 24.1 | 0.00 | 0.00 | 0.00 | 64 | 1013.3 |
| 20260831193502 | 34 | 127 | 12.9 | 24.1 | 0.00 | 0.00 | 0.00 | 61 | 1013.3 |
| 20260831193403 | 35 | 104 | 14.5 | 24.1 | 0.00 | 0.00 | 0.00 | 60 | 1013.3 |
| 20260831193303 | 35 | 175 | 12.9 | 24.1 | 0.00 | 0.00 | 0.00 | 59 | 1013.2 |
| 20260831193202 | 35 | 226 | 9.7 | 20.9 | 0.00 | 0.00 | 0.00 | 59 | 1013.2 |
| 20260831193102 | 35 | 233 | 9.7 | 20.9 | 0.00 | 0.00 | 0.00 | 57 | 1013.2 |
| 20260831193002 | 35 | 196 | 4.8 | 11.3 | 0.00 | 0.00 | 0.00 | 56 | 1013.1 |
| 20260831192902 | 35 | 233 | 3.2 | 11.3 | 0.00 | 0.00 | 0.00 | 57 | 1013.2 |
| 20260831192802 | 35 | 276 | 1.6 | 11.3 | 0.00 | 0.00 | 0.00 | 57 | 1013.1 |
| 20260831192703 | 35 | 96 | 3.2 | 11.3 | 0.00 | 0.00 | 0.00 | 57 | 1013.2 |
| 20260831192603 | 35 | 96 | 4.8 | 11.3 | 0.00 | 0.00 | 0.00 | 57 | 1013.3 |
| 20260831192503 | 35 | 144 | 6.4 | 14.5 | 0.00 | 0.00 | 0.00 | 57 | 1013.3 |
| 20260831192402 | 35 | 172 | 6.4 | 14.5 | 0.00 | 0.00 | 0.00 | 57 | 1013.3 |
| 20260831192305 | 35 | 145 | 4.8 | 14.5 | 0.00 | 0.00 | 0.00 | 57 | 1013.3 |
| 20260831192203 | 35 | 188 | 3.2 | 14.5 | 0.00 | 0.00 | 0.00 | 58 | 1013.3 |
| 20260831192102 | 35 | 154 | 3.2 | 14.5 | 0.00 | 0.00 | 0.00 | 58 | 1013.3 |
| 20260831192003 | 35 | 133 | 6.4 | 14.5 | 0.00 | 0.00 | 0.00 | 58 | 1013.3 |
| 20260831191903 | 35 | 137 | 6.4 | 14.5 | 0.00 | 0.00 | 0.00 | 58 | 1013.3 |
| 20260831191802 | 35 | 138 | 6.4 | 14.5 | 0.00 | 0.00 | 0.00 | 58 | 1013.3 |
| 20260831191702 | 35 | 49 | 8.0 | 14.5 | 0.00 | 0.00 | 0.00 | 57 | 1013.4 |
| 20260831191603 | 35 | 92 | 6.4 | 14.5 | 0.00 | 0.00 | 0.00 | 58 | 1013.3 |
| 20260831191502 | 35 | 99 | 1.6 | 9.7 | 0.00 | 0.00 | 0.00 | 58 | 1013.2 |
| 20260831191401 | 34 | 59 | 1.6 | 9.7 | 0.00 | 0.00 | 0.00 | 57 | 1013.3 |
| 20260831191302 | 34 | 59 | 1.6 | 9.7 | 0.00 | 0.00 | 0.00 | 57 | 1013.2 |
| 20260831191203 | 34 | 59 | 3.2 | 9.7 | 0.00 | 0.00 | 0.00 | 58 | 1013.3 |
| 20260831191102 | 34 | 59 | 4.8 | 9.7 | 0.00 | 0.00 | 0.00 | 56 | 1013.3 |
| 20260831191002 | 34 | 58 | 6.4 | 9.7 | 0.00 | 0.00 | 0.00 | 56 | 1013.4 |
| 20260831190902 | 34 | 58 | 6.4 | 9.7 | 0.00 | 0.00 | 0.00 | 56 | 1013.4 |
| 20260831190803 | 35 | 49 | 4.8 | 8.0 | 0.00 | 0.00 | 0.00 | 55 | 1013.4 |
| 20260831190702 | 35 | 23 | 3.2 | 6.4 | 0.00 | 0.00 | 0.00 | 56 | 1013.4 |
| 20260831190603 | 34 | 23 | 4.8 | 9.7 | 0.00 | 0.00 | 0.00 | 56 | 1013.5 |
| 20260831190504 | 34 | 23 | 3.2 | 9.7 | 0.00 | 0.00 | 0.00 | 57 | 1013.5 |
| 20260831190401 | 34 | 72 | 3.2 | 9.7 | 0.00 | 0.00 | 0.00 | 57 | 1013.5 |
| 20260831190302 | 34 | 72 | 3.2 | 11.3 | 0.00 | 0.00 | 0.00 | 56 | 1013.5 |
| 20260831190203 | 34 | 24 | 1.6 | 11.3 | 0.00 | 0.00 | 0.00 | 56 | 1013.6 |
| 20260831190003 | 34 | 24 | 1.6 | 19.3 | 0.00 | 0.00 | 0.00 | 58 | 1013.6 |
| 20260831185904 | 33 | 39 | 3.2 | 19.3 | 0.00 | 0.00 | 0.00 | 58 | 1013.7 |
| 20260831185803 | 33 | 39 | 6.4 | 19.3 | 0.00 | 0.00 | 0.00 | 57 | 1013.6 |
| 20260831185702 | 34 | 39 | 6.4 | 19.3 | 0.00 | 0.00 | 0.00 | 57 | 1013.7 |
| 20260831185603 | 34 | 61 | 6.4 | 19.3 | 0.00 | 0.00 | 0.00 | 57 | 1013.6 |
| 20260831185504 | 34 | 49 | 8.0 | 19.3 | 0.00 | 0.00 | 0.00 | 57 | 1013.6 |
| 20260831185401 | 34 | 51 | 9.7 | 19.3 | 0.00 | 0.00 | 0.00 | 57 | 1013.7 |
| 20260831185306 | 34 | 47 | 9.7 | 19.3 | 0.00 | 0.00 | 0.00 | 57 | 1013.7 |
| 20260831185204 | 35 | 58 | 11.3 | 19.3 | 0.00 | 0.00 | 0.00 | 57 | 1013.6 |
| 20260831185103 | 35 | 17 | 9.7 | 19.3 | 0.00 | 0.00 | 0.00 | 58 | 1013.6 |
| 20260831185003 | 35 | 103 | 3.2 | 11.3 | 0.00 | 0.00 | 0.00 | 58 | 1013.7 |
| 20260831184903 | 34 | 299 | 1.6 | 9.7 | 0.00 | 0.00 | 0.00 | 58 | 1013.6 |
| 20260831184803 | 35 | 299 | 3.2 | 9.7 | 0.00 | 0.00 | 0.00 | 57 | 1013.7 |
| 20260831184702 | 35 | 259 | 3.2 | 9.7 | 0.00 | 0.00 | 0.00 | 56 | 1013.7 |
| 20260831184603 | 35 | 259 | 6.4 | 9.7 | 0.00 | 0.00 | 0.00 | 57 | 1013.7 |
| 20260831184504 | 35 | 241 | 4.8 | 9.7 | 0.00 | 0.00 | 0.00 | 57 | 1013.7 |
| 20260831184403 | 35 | 213 | 3.2 | 8.0 | 0.00 | 0.00 | 0.00 | 57 | 1013.7 |
| 20260831184302 | 35 | 259 | 3.2 | 9.7 | 0.00 | 0.00 | 0.00 | 57 | 1013.7 |
| 20260831184203 | 35 | 268 | 3.2 | 14.5 | 0.00 | 0.00 | 0.00 | 57 | 1013.7 |
| 20260831184103 | 35 | 168 | 3.2 | 16.1 | 0.00 | 0.00 | 0.00 | 57 | 1013.7 |
| 20260831184004 | 35 | 99 | 3.2 | 17.7 | 0.00 | 0.00 | 0.00 | 57 | 1013.8 |
| 20260831183902 | 35 | 99 | 4.8 | 17.7 | 0.00 | 0.00 | 0.00 | 57 | 1013.7 |
| 20260831183803 | 35 | 134 | 4.8 | 17.7 | 0.00 | 0.00 | 0.00 | 57 | 1013.8 |
| 20260831183702 | 35 | 27 | 4.8 | 17.7 | 0.00 | 0.00 | 0.00 | 58 | 1013.8 |
| 20260831183602 | 35 | 85 | 4.8 | 17.7 | 0.00 | 0.00 | 0.00 | 58 | 1013.8 |
| 20260831183504 | 35 | 20 | 4.8 | 17.7 | 0.00 | 0.00 | 0.00 | 58 | 1013.8 |
| 20260831183403 | 35 | 48 | 8.0 | 17.7 | 0.00 | 0.00 | 0.00 | 57 | 1013.8 |
| 20260831183302 | 35 | 49 | 11.3 | 17.7 | 0.00 | 0.00 | 0.00 | 57 | 1013.8 |
| 20260831183201 | 35 | 76 | 12.9 | 17.7 | 0.00 | 0.00 | 0.00 | 57 | 1013.9 |
| 20260831183103 | 35 | 63 | 11.3 | 17.7 | 0.00 | 0.00 | 0.00 | 57 | 1013.8 |
| 20260831183002 | 35 | 52 | 8.0 | 14.5 | 0.00 | 0.00 | 0.00 | 56 | 1013.8 |
| 20260831182903 | 35 | 97 | 4.8 | 11.3 | 0.00 | 0.00 | 0.00 | 56 | 1013.8 |
| 20260831182803 | 35 | 31 | 3.2 | 11.3 | 0.00 | 0.00 | 0.00 | 56 | 1013.8 |
| 20260831182702 | 35 | 0 | 6.4 | 11.3 | 0.00 | 0.00 | 0.00 | 57 | 1013.8 |
| 20260831182602 | 35 | 0 | 8.0 | 11.3 | 0.00 | 0.00 | 0.00 | 57 | 1013.9 |
| 20260831182504 | 35 | 44 | 4.8 | 8.0 | 0.00 | 0.00 | 0.00 | 56 | 1013.9 |
| 20260831182402 | 35 | 18 | 3.2 | 6.4 | 0.00 | 0.00 | 0.00 | 57 | 1013.9 |
| 20260831182305 | 35 | 344 | 3.2 | 6.4 | 0.00 | 0.00 | 0.00 | 57 | 1014.0 |
| 20260831182203 | 35 | 341 | 3.2 | 6.4 | 0.00 | 0.00 | 0.00 | 57 | 1013.9 |
| 20260831182103 | 35 | 340 | 3.2 | 6.4 | 0.00 | 0.00 | 0.00 | 57 | 1013.9 |
| 20260831182003 | 35 | 348 | 3.2 | 6.4 | 0.00 | 0.00 | 0.00 | 57 | 1013.9 |
| 20260831181903 | 35 | 348 | 3.2 | 9.7 | 0.00 | 0.00 | 0.00 | 58 | 1014.0 |
| 20260831181803 | 35 | 347 | 3.2 | 11.3 | 0.00 | 0.00 | 0.00 | 57 | 1014.1 |
| 20260831181703 | 35 | 309 | 4.8 | 14.5 | 0.00 | 0.00 | 0.00 | 57 | 1014.0 |
| 20260831181601 | 35 | 281 | 3.2 | 16.1 | 0.00 | 0.00 | 0.00 | 58 | 1014.0 |
| 20260831181502 | 35 | 336 | 3.2 | 16.1 | 0.00 | 0.00 | 0.00 | 59 | 1014.0 |
| 20260831181403 | 35 | 4 | 1.6 | 16.1 | 0.00 | 0.00 | 0.00 | 59 | 1014.1 |
| 20260831181302 | 35 | 32 | 1.6 | 16.1 | 0.00 | 0.00 | 0.00 | 60 | 1014.1 |
| 20260831181202 | 34 | 37 | 3.2 | 16.1 | 0.00 | 0.00 | 0.00 | 61 | 1014.1 |
| 20260831181104 | 34 | 37 | 6.4 | 16.1 | 0.00 | 0.00 | 0.00 | 62 | 1014.1 |
| 20260831181003 | 33 | 35 | 9.7 | 16.1 | 0.00 | 0.00 | 0.00 | 62 | 1014.1 |
| 20260831180902 | 33 | 80 | 11.3 | 16.1 | 0.00 | 0.00 | 0.00 | 61 | 1014.2 |
| 20260831180803 | 33 | 82 | 9.7 | 16.1 | 0.00 | 0.00 | 0.00 | 62 | 1014.2 |
| 20260831180702 | 33 | 109 | 8.0 | 16.1 | 0.00 | 0.00 | 0.00 | 62 | 1014.2 |
| 20260831180602 | 33 | 79 | 9.7 | 16.1 | 0.00 | 0.00 | 0.00 | 62 | 1014.2 |
| 20260831180502 | 33 | 73 | 6.4 | 16.1 | 0.00 | 0.00 | 0.00 | 62 | 1014.2 |
| 20260831180401 | 33 | 52 | 6.4 | 16.1 | 0.00 | 0.00 | 0.00 | 62 | 1014.3 |
| 20260831180303 | 34 | 55 | 9.7 | 16.1 | 0.00 | 0.00 | 0.00 | 62 | 1014.4 |
| 20260831180202 | 34 | 63 | 11.3 | 16.1 | 0.00 | 0.00 | 0.00 | 62 | 1014.2 |
| 20260831180105 | 34 | 56 | 6.4 | 16.1 | 0.00 | 0.00 | 0.00 | 62 | 1014.3 |
| 20260831180003 | 34 | 0 | 1.6 | 11.3 | 0.00 | 0.00 | 0.00 | 61 | 1014.4 |
| 20260831175902 | 34 | 334 | 1.6 | 11.3 | 0.00 | 0.00 | 0.00 | 61 | 1014.3 |
| 20260831175803 | 34 | 334 | 3.2 | 11.3 | 0.00 | 0.00 | 0.00 | 61 | 1014.4 |
| 20260831175702 | 34 | 334 | 4.8 | 11.3 | 0.00 | 0.00 | 0.00 | 61 | 1014.3 |
| 20260831175603 | 34 | 333 | 4.8 | 11.3 | 0.00 | 0.00 | 0.00 | 61 | 1014.4 |
| 20260831175503 | 34 | 324 | 6.4 | 11.3 | 0.00 | 0.00 | 0.00 | 61 | 1014.3 |
| 20260831175403 | 34 | 20 | 4.8 | 11.3 | 0.00 | 0.00 | 0.00 | 63 | 1014.5 |
| 20260831175305 | 34 | 357 | 4.8 | 9.7 | 0.00 | 0.00 | 0.00 | 64 | 1014.4 |
| 20260831175202 | 33 | 86 | 6.4 | 9.7 | 0.00 | 0.00 | 0.00 | 63 | 1014.4 |
| 20260831175103 | 33 | 87 | 8.0 | 9.7 | 0.00 | 0.00 | 0.00 | 64 | 1014.4 |
| 20260831175003 | 33 | 72 | 6.4 | 9.7 | 0.00 | 0.00 | 0.00 | 64 | 1014.4 |
| 20260831174902 | 33 | 125 | 4.8 | 9.7 | 0.00 | 0.00 | 0.00 | 65 | 1014.4 |
| 20260831174802 | 33 | 73 | 3.2 | 9.7 | 0.00 | 0.00 | 0.00 | 66 | 1014.4 |
| 20260831174703 | 33 | 59 | 3.2 | 11.3 | 0.00 | 0.00 | 0.00 | 66 | 1014.4 |
| 20260831174603 | 33 | 59 | 4.8 | 11.3 | 0.00 | 0.00 | 0.00 | 66 | 1014.4 |
| 20260831174502 | 32 | 82 | 4.8 | 11.3 | 0.00 | 0.00 | 0.00 | 66 | 1014.5 |
| 20260831174402 | 32 | 82 | 9.7 | 11.3 | 0.00 | 0.00 | 0.00 | 67 | 1014.4 |
| 20260831174303 | 32 | 62 | 8.0 | 11.3 | 0.00 | 0.00 | 0.00 | 67 | 1014.5 |
| 20260831174203 | 32 | 62 | 8.0 | 11.3 | 0.00 | 0.00 | 0.00 | 67 | 1014.5 |
| 20260831174103 | 32 | 62 | 8.0 | 11.3 | 0.00 | 0.00 | 0.00 | 67 | 1014.5 |
| 20260831174004 | 32 | 62 | 8.0 | 11.3 | 0.00 | 0.00 | 0.00 | 67 | 1014.5 |
| 20260831173902 | 32 | 56 | 9.7 | 11.3 | 0.00 | 0.00 | 0.00 | 68 | 1014.5 |
| 20260831173802 | 32 | 83 | 8.0 | 11.3 | 0.00 | 0.00 | 0.00 | 68 | 1014.5 |
| 20260831173703 | 32 | 83 | 8.0 | 11.3 | 0.00 | 0.00 | 0.00 | 68 | 1014.5 |
| 20260831173603 | 32 | 58 | 8.0 | 11.3 | 0.00 | 0.00 | 0.00 | 67 | 1014.6 |
| 20260831173503 | 32 | 56 | 6.4 | 9.7 | 0.00 | 0.00 | 0.00 | 67 | 1014.6 |
| 20260831173402 | 32 | 55 | 6.4 | 9.7 | 0.00 | 0.00 | 0.00 | 67 | 1014.6 |
| 20260831173303 | 32 | 59 | 4.8 | 9.7 | 0.00 | 0.00 | 0.00 | 67 | 1014.6 |
| 20260831173201 | 32 | 61 | 3.2 | 9.7 | 0.00 | 0.00 | 0.00 | 67 | 1014.6 |
| 20260831173102 | 32 | 61 | 1.6 | 9.7 | 0.00 | 0.00 | 0.00 | 66 | 1014.6 |
| 20260831173004 | 32 | 61 | 1.6 | 9.7 | 0.00 | 0.00 | 0.00 | 67 | 1014.6 |
| 20260831172902 | 32 | 61 | 1.6 | 16.1 | 0.00 | 0.00 | 0.00 | 66 | 1014.6 |
| 20260831172803 | 32 | 61 | 1.6 | 16.1 | 0.00 | 0.00 | 0.00 | 66 | 1014.7 |
| 20260831172703 | 32 | 61 | 3.2 | 16.1 | 0.00 | 0.00 | 0.00 | 66 | 1014.7 |
| 20260831172602 | 32 | 61 | 4.8 | 16.1 | 0.00 | 0.00 | 0.00 | 66 | 1014.7 |
| 20260831172502 | 32 | 61 | 6.4 | 16.1 | 0.00 | 0.00 | 0.00 | 65 | 1014.7 |
| 20260831172402 | 33 | 59 | 4.8 | 16.1 | 0.00 | 0.00 | 0.00 | 65 | 1014.6 |
| 20260831172306 | 33 | 30 | 4.8 | 16.1 | 0.00 | 0.00 | 0.00 | 65 | 1014.7 |
| 20260831172203 | 33 | 28 | 6.4 | 16.1 | 0.00 | 0.00 | 0.00 | 64 | 1014.7 |
| 20260831172102 | 33 | 63 | 9.7 | 16.1 | 0.00 | 0.00 | 0.00 | 64 | 1014.7 |
| 20260831172003 | 33 | 32 | 11.3 | 16.1 | 0.00 | 0.00 | 0.00 | 64 | 1014.7 |
| 20260831171901 | 33 | 58 | 9.7 | 16.1 | 0.00 | 0.00 | 0.00 | 64 | 1014.7 |
| 20260831171803 | 33 | 86 | 6.4 | 16.1 | 0.00 | 0.00 | 0.00 | 64 | 1014.7 |
| 20260831171702 | 33 | 44 | 4.8 | 16.1 | 0.00 | 0.00 | 0.00 | 65 | 1014.7 |
| 20260831171604 | 33 | 16 | 4.8 | 16.1 | 0.00 | 0.00 | 0.00 | 65 | 1014.8 |
| 20260831171503 | 32 | 16 | 4.8 | 16.1 | 0.00 | 0.00 | 0.00 | 66 | 1014.7 |
| 20260831171403 | 32 | 13 | 6.4 | 16.1 | 0.00 | 0.00 | 0.00 | 65 | 1014.7 |
| 20260831171302 | 32 | 11 | 9.7 | 16.1 | 0.00 | 0.00 | 0.00 | 65 | 1014.7 |
| 20260831171202 | 32 | 25 | 9.7 | 16.1 | 0.00 | 0.00 | 0.00 | 65 | 1014.8 |
| 20260831171102 | 32 | 42 | 6.4 | 14.5 | 0.00 | 0.00 | 0.00 | 65 | 1014.7 |
| 20260831171002 | 32 | 32 | 4.8 | 9.7 | 0.00 | 0.00 | 0.00 | 65 | 1014.7 |
| 20260831170903 | 32 | 337 | 3.2 | 8.0 | 0.00 | 0.00 | 0.00 | 66 | 1014.8 |
| 20260831170803 | 32 | 337 | 1.6 | 11.3 | 0.00 | 0.00 | 0.00 | 66 | 1014.7 |
| 20260831170701 | 32 | 321 | 0.0 | 14.5 | 0.00 | 0.00 | 0.00 | 66 | 1014.7 |
| 20260831170603 | 32 | 321 | 1.6 | 14.5 | 0.00 | 0.00 | 0.00 | 66 | 1014.7 |
| 20260831170503 | 32 | 321 | 3.2 | 14.5 | 0.00 | 0.00 | 0.00 | 65 | 1014.7 |
| 20260831170402 | 32 | 321 | 4.8 | 14.5 | 0.00 | 0.00 | 0.00 | 65 | 1014.7 |
| 20260831170303 | 32 | 0 | 3.2 | 14.5 | 0.00 | 0.00 | 0.00 | 65 | 1014.8 |
| 20260831170203 | 33 | 0 | 4.8 | 14.5 | 0.00 | 0.00 | 0.00 | 65 | 1014.7 |
| 20260831170002 | 33 | 6 | 4.8 | 14.5 | 0.00 | 0.00 | 0.00 | 64 | 1014.8 |
| 20260831165904 | 33 | 37 | 6.4 | 14.5 | 0.00 | 0.00 | 0.00 | 64 | 1014.8 |
| 20260831165802 | 33 | 37 | 6.4 | 14.5 | 0.00 | 0.00 | 0.00 | 64 | 1014.8 |
| 20260831165702 | 33 | 31 | 4.8 | 16.1 | 0.00 | 0.00 | 0.00 | 64 | 1014.8 |
| 20260831165603 | 33 | 0 | 4.8 | 16.1 | 0.00 | 0.00 | 0.00 | 64 | 1014.8 |
| 20260831165504 | 33 | 0 | 6.4 | 16.1 | 0.00 | 0.00 | 0.00 | 64 | 1014.8 |
| 20260831165402 | 33 | 0 | 9.7 | 16.1 | 0.00 | 0.00 | 0.00 | 65 | 1014.8 |
| 20260831165305 | 33 | 7 | 8.0 | 16.1 | 0.00 | 0.00 | 0.00 | 65 | 1014.8 |
| 20260831165202 | 33 | 3 | 4.8 | 16.1 | 0.00 | 0.00 | 0.00 | 66 | 1014.8 |
| 20260831165102 | 33 | 10 | 3.2 | 16.1 | 0.00 | 0.00 | 0.00 | 66 | 1014.8 |
| 20260831165003 | 33 | 94 | 4.8 | 16.1 | 0.00 | 0.00 | 0.00 | 66 | 1014.8 |
| 20260831164904 | 33 | 94 | 8.0 | 16.1 | 0.00 | 0.00 | 0.00 | 66 | 1014.9 |
| 20260831164802 | 33 | 73 | 11.3 | 16.1 | 0.00 | 0.00 | 0.00 | 66 | 1014.9 |
| 20260831164702 | 33 | 31 | 11.3 | 16.1 | 0.00 | 0.00 | 0.00 | 66 | 1015.0 |
| 20260831164603 | 33 | 39 | 9.7 | 11.3 | 0.00 | 0.00 | 0.00 | 66 | 1014.9 |
| 20260831164504 | 33 | 51 | 4.8 | 11.3 | 0.00 | 0.00 | 0.00 | 68 | 1014.9 |
| 20260831164403 | 32 | 340 | 3.2 | 11.3 | 0.00 | 0.00 | 0.00 | 67 | 1014.9 |
| 20260831164302 | 32 | 326 | 1.6 | 11.3 | 0.00 | 0.00 | 0.00 | 68 | 1014.9 |
| 20260831164203 | 32 | 0 | 1.6 | 16.1 | 0.00 | 0.00 | 0.00 | 67 | 1014.9 |
| 20260831164102 | 32 | 0 | 1.6 | 17.7 | 0.00 | 0.00 | 0.00 | 67 | 1014.9 |
| 20260831164004 | 32 | 27 | 1.6 | 17.7 | 0.00 | 0.00 | 0.00 | 67 | 1014.9 |
| 20260831163905 | 32 | 27 | 4.8 | 17.7 | 0.00 | 0.00 | 0.00 | 67 | 1014.9 |
| 20260831163802 | 32 | 28 | 6.4 | 17.7 | 0.00 | 0.00 | 0.00 | 67 | 1014.9 |
| 20260831163703 | 32 | 31 | 6.4 | 17.7 | 0.00 | 0.00 | 0.00 | 67 | 1014.9 |
| 20260831163602 | 32 | 18 | 8.0 | 17.7 | 0.00 | 0.00 | 0.00 | 67 | 1014.9 |
| 20260831163504 | 32 | 37 | 8.0 | 17.7 | 0.00 | 0.00 | 0.00 | 67 | 1014.9 |
| 20260831163403 | 32 | 56 | 9.7 | 17.7 | 0.00 | 0.00 | 0.00 | 67 | 1014.9 |
| 20260831163302 | 32 | 61 | 9.7 | 17.7 | 0.00 | 0.00 | 0.00 | 67 | 1014.9 |
| 20260831163204 | 32 | 4 | 6.4 | 17.7 | 0.00 | 0.00 | 0.00 | 67 | 1014.9 |
| 20260831163103 | 32 | 55 | 3.2 | 9.7 | 0.00 | 0.00 | 0.00 | 66 | 1014.9 |
| 20260831163003 | 32 | 56 | 3.2 | 11.3 | 0.00 | 0.00 | 0.00 | 66 | 1015.0 |
| 20260831162902 | 32 | 221 | 4.8 | 11.3 | 0.00 | 0.00 | 0.00 | 67 | 1014.9 |
| 20260831162803 | 32 | 149 | 4.8 | 11.3 | 0.00 | 0.00 | 0.00 | 67 | 1014.8 |
| 20260831162702 | 32 | 165 | 4.8 | 11.3 | 0.00 | 0.00 | 0.00 | 66 | 1014.8 |
| 20260831162602 | 32 | 90 | 4.8 | 11.3 | 0.00 | 0.00 | 0.00 | 67 | 1014.8 |
| 20260831162502 | 32 | 120 | 4.8 | 11.3 | 0.00 | 0.00 | 0.00 | 66 | 1014.8 |
| 20260831162402 | 32 | 120 | 6.4 | 11.3 | 0.00 | 0.00 | 0.00 | 66 | 1014.9 |
| 20260831162305 | 33 | 118 | 6.4 | 11.3 | 0.00 | 0.00 | 0.00 | 66 | 1014.9 |
| 20260831162203 | 33 | 90 | 6.4 | 11.3 | 0.00 | 0.00 | 0.00 | 66 | 1014.9 |
| 20260831162102 | 33 | 103 | 8.0 | 11.3 | 0.00 | 0.00 | 0.00 | 67 | 1014.9 |
| 20260831162003 | 33 | 86 | 6.4 | 9.7 | 0.00 | 0.00 | 0.00 | 67 | 1014.9 |
| 20260831161902 | 32 | 93 | 4.8 | 9.7 | 0.00 | 0.00 | 0.00 | 67 | 1014.9 |
| 20260831161803 | 32 | 49 | 6.4 | 9.7 | 0.00 | 0.00 | 0.00 | 67 | 1014.9 |
| 20260831161702 | 32 | 73 | 6.4 | 9.7 | 0.00 | 0.00 | 0.00 | 67 | 1014.9 |
| 20260831161602 | 32 | 73 | 6.4 | 8.0 | 0.00 | 0.00 | 0.00 | 68 | 1014.9 |
| 20260831161504 | 32 | 66 | 4.8 | 8.0 | 0.00 | 0.00 | 0.00 | 69 | 1014.9 |
| 20260831161403 | 32 | 49 | 1.6 | 8.0 | 0.00 | 0.00 | 0.00 | 70 | 1014.9 |
| 20260831161302 | 32 | 312 | 1.6 | 8.0 | 0.00 | 0.00 | 0.00 | 70 | 1014.9 |
| 20260831161202 | 32 | 312 | 1.6 | 8.0 | 0.00 | 0.00 | 0.00 | 70 | 1014.9 |
| 20260831161104 | 32 | 312 | 3.2 | 8.0 | 0.00 | 0.00 | 0.00 | 70 | 1014.9 |
| 20260831161002 | 32 | 312 | 3.2 | 8.0 | 0.00 | 0.00 | 0.00 | 70 | 1015.0 |
| 20260831160902 | 32 | 312 | 3.2 | 8.0 | 0.00 | 0.00 | 0.00 | 70 | 1014.9 |
| 20260831160804 | 32 | 289 | 3.2 | 8.0 | 0.00 | 0.00 | 0.00 | 69 | 1014.8 |
| 20260831160702 | 32 | 289 | 3.2 | 8.0 | 0.00 | 0.00 | 0.00 | 69 | 1014.8 |
| 20260831160604 | 32 | 248 | 1.6 | 8.0 | 0.00 | 0.00 | 0.00 | 69 | 1014.8 |
| 20260831160503 | 32 | 248 | 3.2 | 8.0 | 0.00 | 0.00 | 0.00 | 69 | 1014.9 |
| 20260831160403 | 32 | 250 | 3.2 | 8.0 | 0.00 | 0.00 | 0.00 | 69 | 1014.8 |
| 20260831160302 | 32 | 250 | 4.8 | 8.0 | 0.00 | 0.00 | 0.00 | 69 | 1014.8 |
| 20260831160202 | 32 | 264 | 4.8 | 9.7 | 0.00 | 0.00 | 0.00 | 69 | 1014.8 |
| 20260831160002 | 32 | 259 | 3.2 | 9.7 | 0.00 | 0.00 | 0.00 | 70 | 1015.0 |
| 20260831155903 | 32 | 258 | 3.2 | 9.7 | 0.00 | 0.00 | 0.00 | 69 | 1014.9 |
| 20260831155802 | 32 | 258 | 4.8 | 9.7 | 0.00 | 0.00 | 0.00 | 69 | 1015.0 |
| 20260831155705 | 32 | 258 | 4.8 | 9.7 | 0.00 | 0.00 | 0.00 | 70 | 1014.9 |
| 20260831155602 | 32 | 258 | 4.8 | 9.7 | 0.00 | 0.00 | 0.00 | 69 | 1014.9 |
| 20260831155502 | 32 | 250 | 3.2 | 9.7 | 0.00 | 0.00 | 0.00 | 70 | 1014.9 |
| 20260831155404 | 32 | 137 | 4.8 | 9.7 | 0.00 | 0.00 | 0.00 | 70 | 1014.9 |
| 20260831155306 | 32 | 138 | 6.4 | 9.7 | 0.00 | 0.00 | 0.00 | 70 | 1014.9 |
| 20260831155202 | 32 | 85 | 4.8 | 8.0 | 0.00 | 0.00 | 0.00 | 71 | 1014.9 |
| 20260831155103 | 32 | 221 | 3.2 | 6.4 | 0.00 | 0.00 | 0.00 | 72 | 1014.9 |
| 20260831155003 | 32 | 272 | 3.2 | 6.4 | 0.00 | 0.00 | 0.00 | 72 | 1014.9 |
| 20260831154902 | 32 | 274 | 3.2 | 8.0 | 0.00 | 0.00 | 0.00 | 72 | 1015.0 |
| 20260831154802 | 32 | 274 | 3.2 | 8.0 | 0.00 | 0.00 | 0.00 | 71 | 1014.9 |
| 20260831154702 | 32 | 274 | 3.2 | 8.0 | 0.00 | 0.00 | 0.00 | 72 | 1015.0 |
| 20260831154602 | 32 | 279 | 3.2 | 8.0 | 0.00 | 0.00 | 0.00 | 71 | 1015.0 |
| 20260831154503 | 32 | 224 | 3.2 | 8.0 | 0.00 | 0.00 | 0.00 | 72 | 1015.0 |
| 20260831154403 | 32 | 204 | 3.2 | 9.7 | 0.00 | 0.00 | 0.00 | 74 | 1015.0 |
| 20260831154303 | 31 | 124 | 3.2 | 9.7 | 0.00 | 0.00 | 0.00 | 74 | 1015.0 |
| 20260831154202 | 31 | 262 | 4.8 | 9.7 | 0.00 | 0.00 | 0.00 | 74 | 1015.0 |
| 20260831154103 | 31 | 271 | 6.4 | 9.7 | 0.00 | 0.00 | 0.00 | 74 | 1015.0 |
| 20260831154003 | 31 | 185 | 4.8 | 9.7 | 0.00 | 0.00 | 0.00 | 74 | 1015.0 |
| 20260831153902 | 31 | 235 | 3.2 | 9.7 | 0.00 | 0.00 | 0.00 | 75 | 1015.1 |
| 20260831153802 | 31 | 166 | 1.6 | 9.7 | 0.00 | 0.00 | 0.00 | 74 | 1015.0 |
| 20260831153704 | 31 | 121 | 3.2 | 9.7 | 0.00 | 0.00 | 0.00 | 74 | 1015.1 |
| 20260831153602 | 31 | 121 | 4.8 | 9.7 | 0.00 | 0.00 | 0.00 | 75 | 1015.1 |
| 20260831153502 | 31 | 171 | 4.8 | 9.7 | 0.00 | 0.00 | 0.00 | 75 | 1015.0 |
| 20260831153404 | 31 | 113 | 3.2 | 8.0 | 0.00 | 0.00 | 0.00 | 75 | 1015.1 |
| 20260831153303 | 31 | 250 | 1.6 | 8.0 | 0.00 | 0.00 | 0.00 | 76 | 1015.1 |
| 20260831153202 | 31 | 251 | 3.2 | 8.0 | 0.00 | 0.00 | 0.00 | 76 | 1015.1 |
| 20260831153102 | 31 | 252 | 4.8 | 8.0 | 0.00 | 0.00 | 0.00 | 76 | 1015.0 |
| 20260831153004 | 31 | 235 | 3.2 | 8.0 | 0.00 | 0.00 | 0.00 | 76 | 1015.1 |
| 20260831152902 | 30 | 324 | 0.0 | 4.8 | 0.00 | 0.00 | 0.00 | 76 | 1015.1 |
| 20260831152802 | 30 | 324 | 0.0 | 4.8 | 0.00 | 0.00 | 0.00 | 76 | 1015.0 |
| 20260831152704 | 30 | 324 | 1.6 | 4.8 | 0.00 | 0.00 | 0.00 | 75 | 1015.0 |
| 20260831152603 | 30 | 324 | 3.2 | 8.0 | 0.00 | 0.00 | 0.00 | 75 | 1015.0 |
| 20260831152502 | 30 | 323 | 3.2 | 8.0 | 0.00 | 0.00 | 0.00 | 75 | 1015.0 |
| 20260831152403 | 30 | 286 | 3.2 | 8.0 | 0.00 | 0.00 | 0.00 | 76 | 1014.9 |
| 20260831152306 | 30 | 331 | 3.2 | 8.0 | 0.00 | 0.00 | 0.00 | 75 | 1015.0 |
| 20260831152203 | 30 | 334 | 3.2 | 8.0 | 0.00 | 0.00 | 0.00 | 75 | 1015.0 |
| 20260831152102 | 30 | 334 | 3.2 | 8.0 | 0.00 | 0.00 | 0.00 | 76 | 1015.0 |
| 20260831152005 | 30 | 334 | 1.6 | 9.7 | 0.00 | 0.00 | 0.00 | 76 | 1014.9 |
| 20260831151902 | 30 | 41 | 1.6 | 9.7 | 0.00 | 0.00 | 0.00 | 75 | 1015.0 |
| 20260831151802 | 30 | 41 | 3.2 | 9.7 | 0.00 | 0.00 | 0.00 | 75 | 1015.0 |
| 20260831151704 | 31 | 41 | 3.2 | 9.7 | 0.00 | 0.00 | 0.00 | 74 | 1015.0 |
| 20260831151602 | 31 | 41 | 1.6 | 9.7 | 0.00 | 0.00 | 0.00 | 74 | 1014.9 |
| 20260831151503 | 31 | 41 | 3.2 | 9.7 | 0.00 | 0.00 | 0.00 | 73 | 1014.9 |
| 20260831151358 | 31 | 41 | 4.8 | 9.7 | 0.00 | 0.00 | 0.00 | 75 | 1014.9 |
| 20260831151257 | 31 | 99 | 3.2 | 9.7 | 0.00 | 0.00 | 0.00 | 75 | 1014.9 |
| 20260831151156 | 31 | 104 | 3.2 | 9.7 | 0.00 | 0.00 | 0.00 | 75 | 1014.8 |
| 20260831151056 | 31 | 106 | 3.2 | 9.7 | 0.00 | 0.00 | 0.00 | 75 | 1014.8 |
| 20260831150953 | 31 | 92 | 3.2 | 8.0 | 0.00 | 0.00 | 0.00 | 75 | 1014.8 |
| 20260831150852 | 31 | 89 | 3.2 | 8.0 | 0.00 | 0.00 | 0.00 | 76 | 1014.8 |
| 20260831150750 | 31 | 178 | 3.2 | 8.0 | 0.00 | 0.00 | 0.00 | 76 | 1014.9 |
| 20260831150649 | 31 | 118 | 1.6 | 8.0 | 0.00 | 0.00 | 0.00 | 77 | 1014.9 |
| 20260831150548 | 30 | 20 | 1.6 | 8.0 | 0.00 | 0.00 | 0.00 | 77 | 1014.8 |
| 20260831150446 | 30 | 20 | 3.2 | 8.0 | 0.00 | 0.00 | 0.00 | 77 | 1014.8 |
| 20260831150344 | 30 | 39 | 4.8 | 8.0 | 0.00 | 0.00 | 0.00 | 77 | 1014.8 |
| 20260831150242 | 30 | 39 | 4.8 | 9.7 | 0.00 | 0.00 | 0.00 | 77 | 1014.9 |
| 20260831150141 | 30 | 49 | 4.8 | 9.7 | 0.00 | 0.00 | 0.00 | 78 | 1014.8 |
| 20260831150039 | 30 | 48 | 1.6 | 9.7 | 0.00 | 0.00 | 0.00 | 79 | 1014.8 |
| 20260831145938 | 30 | 94 | 1.6 | 9.7 | 0.00 | 0.00 | 0.00 | 79 | 1014.8 |
| 20260831145835 | 30 | 96 | 0.0 | 9.7 | 0.00 | 0.00 | 0.00 | 79 | 1014.9 |
| 20260831145736 | 30 | 96 | 3.2 | 9.7 | 0.00 | 0.00 | 0.00 | 79 | 1014.9 |
| 20260831145634 | 30 | 96 | 3.2 | 9.7 | 0.00 | 0.00 | 0.00 | 79 | 1014.9 |
| 20260831145533 | 30 | 94 | 3.2 | 9.7 | 0.00 | 0.00 | 0.00 | 78 | 1014.9 |
| 20260831145432 | 30 | 94 | 6.4 | 9.7 | 0.00 | 0.00 | 0.00 | 78 | 1014.9 |
| 20260831145333 | 30 | 93 | 6.4 | 9.7 | 0.00 | 0.00 | 0.00 | 79 | 1014.9 |
| 20260831145233 | 30 | 34 | 4.8 | 9.7 | 0.00 | 0.00 | 0.00 | 79 | 1014.9 |
| 20260831145132 | 30 | 51 | 4.8 | 9.7 | 0.00 | 0.00 | 0.00 | 79 | 1014.9 |
| 20260831145033 | 30 | 51 | 1.6 | 9.7 | 0.00 | 0.00 | 0.00 | 79 | 1014.9 |
| 20260831144933 | 30 | 20 | 3.2 | 9.7 | 0.00 | 0.00 | 0.00 | 79 | 1014.9 |
| 20260831144832 | 30 | 20 | 6.4 | 9.7 | 0.00 | 0.00 | 0.00 | 79 | 1014.9 |
| 20260831144732 | 30 | 20 | 6.4 | 9.7 | 0.00 | 0.00 | 0.00 | 80 | 1015.0 |
| 20260831144632 | 30 | 28 | 4.8 | 9.7 | 0.00 | 0.00 | 0.00 | 80 | 1014.9 |
| 20260831144532 | 30 | 13 | 6.4 | 9.7 | 0.00 | 0.00 | 0.00 | 80 | 1014.8 |
| 20260831144432 | 30 | 14 | 8.0 | 9.7 | 0.00 | 0.00 | 0.00 | 81 | 1014.8 |
| 20260831144332 | 30 | 39 | 6.4 | 9.7 | 0.00 | 0.00 | 0.00 | 81 | 1014.9 |
| 20260831144233 | 30 | 18 | 3.2 | 8.0 | 0.00 | 0.00 | 0.00 | 81 | 1014.9 |
| 20260831144133 | 30 | 23 | 4.8 | 8.0 | 0.00 | 0.00 | 0.00 | 81 | 1014.9 |
| 20260831144032 | 30 | 23 | 4.8 | 8.0 | 0.00 | 0.00 | 0.00 | 81 | 1014.9 |
| 20260831143934 | 30 | 68 | 3.2 | 6.4 | 0.00 | 0.00 | 0.00 | 82 | 1014.9 |
| 20260831143832 | 29 | 51 | 3.2 | 6.4 | 0.00 | 0.00 | 0.00 | 82 | 1014.8 |
| 20260831143733 | 29 | 51 | 3.2 | 6.4 | 0.00 | 0.00 | 0.00 | 81 | 1014.8 |
| 20260831143633 | 29 | 51 | 4.8 | 6.4 | 0.00 | 0.00 | 0.00 | 81 | 1014.8 |
| 20260831143532 | 29 | 51 | 4.8 | 6.4 | 0.00 | 0.00 | 0.00 | 81 | 1014.8 |
| 20260831143432 | 30 | 44 | 4.8 | 6.4 | 0.00 | 0.00 | 0.00 | 81 | 1014.8 |
| 20260831143332 | 30 | 39 | 3.2 | 6.4 | 0.00 | 0.00 | 0.00 | 81 | 1014.8 |
| 20260831143233 | 30 | 16 | 3.2 | 9.7 | 0.00 | 0.00 | 0.00 | 81 | 1014.8 |
| 20260831143132 | 30 | 16 | 4.8 | 9.7 | 0.00 | 0.00 | 0.00 | 81 | 1014.9 |
| 20260831143031 | 30 | 16 | 4.8 | 9.7 | 0.00 | 0.00 | 0.00 | 82 | 1014.8 |
| 20260831142931 | 30 | 13 | 4.8 | 9.7 | 0.00 | 0.00 | 0.00 | 82 | 1014.9 |
| 20260831142832 | 29 | 37 | 4.8 | 9.7 | 0.00 | 0.00 | 0.00 | 82 | 1014.8 |
| 20260831142732 | 29 | 28 | 3.2 | 9.7 | 0.00 | 0.00 | 0.00 | 82 | 1014.8 |
| 20260831142632 | 29 | 16 | 3.2 | 9.7 | 0.00 | 0.00 | 0.00 | 82 | 1014.9 |
| 20260831142531 | 29 | 16 | 4.8 | 9.7 | 0.00 | 0.00 | 0.00 | 82 | 1014.9 |
| 20260831142433 | 29 | 14 | 4.8 | 9.7 | 0.00 | 0.00 | 0.00 | 82 | 1014.9 |
| 20260831142332 | 29 | 42 | 3.2 | 9.7 | 0.00 | 0.00 | 0.00 | 83 | 1014.9 |
| 20260831142232 | 29 | 16 | 0.0 | 6.4 | 0.00 | 0.00 | 0.00 | 83 | 1014.8 |
| 20260831142132 | 29 | 16 | 0.0 | 6.4 | 0.00 | 0.00 | 0.00 | 83 | 1014.8 |
| 20260831142032 | 29 | 17 | 0.0 | 6.4 | 0.00 | 0.00 | 0.00 | 83 | 1014.8 |
| 20260831141931 | 29 | 17 | 0.0 | 6.4 | 0.00 | 0.00 | 0.00 | 83 | 1014.9 |
| 20260831141833 | 29 | 334 | 0.0 | 6.4 | 0.00 | 0.00 | 0.00 | 83 | 1014.8 |
| 20260831141732 | 29 | 334 | 1.6 | 6.4 | 0.00 | 0.00 | 0.00 | 83 | 1014.8 |
| 20260831141631 | 29 | 334 | 3.2 | 6.4 | 0.00 | 0.00 | 0.00 | 83 | 1014.8 |
| 20260831141533 | 29 | 334 | 4.8 | 6.4 | 0.00 | 0.00 | 0.00 | 84 | 1014.8 |
| 20260831141431 | 28 | 333 | 4.8 | 6.4 | 0.00 | 0.00 | 0.00 | 83 | 1014.8 |
| 20260831141332 | 28 | 338 | 4.8 | 6.4 | 0.00 | 0.00 | 0.00 | 83 | 1014.7 |
| 20260831141232 | 28 | 351 | 3.2 | 6.4 | 0.00 | 0.00 | 0.00 | 84 | 1014.8 |
| 20260831141133 | 28 | 14 | 1.6 | 6.4 | 0.00 | 0.00 | 0.00 | 84 | 1014.7 |
| 20260831141032 | 28 | 20 | 1.6 | 6.4 | 0.00 | 0.00 | 0.00 | 84 | 1014.7 |
| 20260831140932 | 28 | 20 | 3.2 | 6.4 | 0.00 | 0.00 | 0.00 | 84 | 1014.7 |
| 20260831140831 | 28 | 20 | 3.2 | 6.4 | 0.00 | 0.00 | 0.00 | 84 | 1014.8 |
| 20260831140731 | 28 | 35 | 4.8 | 6.4 | 0.00 | 0.00 | 0.00 | 85 | 1014.7 |
| 20260831140631 | 28 | 0 | 3.2 | 6.4 | 0.00 | 0.00 | 0.00 | 85 | 1014.7 |
| 20260831140531 | 28 | 0 | 3.2 | 6.4 | 0.00 | 0.00 | 0.00 | 85 | 1014.7 |
| 20260831140433 | 28 | 0 | 3.2 | 6.4 | 0.00 | 0.00 | 0.00 | 85 | 1014.7 |
| 20260831140332 | 28 | 0 | 1.6 | 6.4 | 0.00 | 0.00 | 0.00 | 85 | 1014.6 |
| 20260831140232 | 28 | 0 | 3.2 | 6.4 | 0.00 | 0.00 | 0.00 | 86 | 1014.7 |
| 20260831140131 | 28 | 0 | 4.8 | 8.0 | 0.00 | 0.00 | 0.00 | 86 | 1014.6 |
| 20260831140033 | 28 | 0 | 3.2 | 8.0 | 0.00 | 0.00 | 0.00 | 86 | 1014.7 |
| 20260831135931 | 28 | 0 | 1.6 | 8.0 | 0.00 | 0.00 | 0.00 | 86 | 1014.7 |
| 20260831135831 | 28 | 0 | 3.2 | 8.0 | 0.00 | 0.00 | 0.00 | 86 | 1014.7 |
| 20260831135731 | 28 | 0 | 3.2 | 8.0 | 0.00 | 0.00 | 0.00 | 86 | 1014.7 |
| 20260831135632 | 28 | 0 | 3.2 | 8.0 | 0.00 | 0.00 | 0.00 | 86 | 1014.6 |
| 20260831135531 | 28 | 0 | 1.6 | 8.0 | 0.00 | 0.00 | 0.00 | 86 | 1014.6 |
| 20260831135432 | 28 | 0 | 3.2 | 8.0 | 0.00 | 0.00 | 0.00 | 86 | 1014.7 |
| 20260831135331 | 28 | 0 | 4.8 | 8.0 | 0.00 | 0.00 | 0.00 | 86 | 1014.6 |
| 20260831135231 | 28 | 0 | 4.8 | 8.0 | 0.00 | 0.00 | 0.00 | 87 | 1014.6 |
| 20260831135131 | 28 | 6 | 4.8 | 8.0 | 0.00 | 0.00 | 0.00 | 87 | 1014.6 |
| 20260831135033 | 28 | 10 | 4.8 | 8.0 | 0.00 | 0.00 | 0.00 | 87 | 1014.5 |
| 20260831134931 | 28 | 10 | 6.4 | 8.0 | 0.00 | 0.00 | 0.00 | 87 | 1014.6 |
| 20260831134831 | 27 | 8 | 4.8 | 8.0 | 0.00 | 0.00 | 0.00 | 87 | 1014.5 |
| 20260831134732 | 27 | 10 | 4.8 | 8.0 | 0.00 | 0.00 | 0.00 | 87 | 1014.5 |
| 20260831134631 | 27 | 11 | 4.8 | 8.0 | 0.00 | 0.00 | 0.00 | 88 | 1014.4 |
| 20260831134531 | 27 | 11 | 6.4 | 8.0 | 0.00 | 0.00 | 0.00 | 88 | 1014.5 |
| 20260831134432 | 27 | 10 | 6.4 | 8.0 | 0.00 | 0.00 | 0.00 | 88 | 1014.4 |
| 20260831134332 | 27 | 11 | 4.8 | 8.0 | 0.00 | 0.00 | 0.00 | 88 | 1014.5 |
| 20260831134231 | 27 | 0 | 3.2 | 6.4 | 0.00 | 0.00 | 0.00 | 88 | 1014.4 |
| 20260831134131 | 27 | 0 | 4.8 | 6.4 | 0.00 | 0.00 | 0.00 | 88 | 1014.5 |
| 20260831134033 | 27 | 0 | 3.2 | 6.4 | 0.00 | 0.00 | 0.00 | 89 | 1014.5 |
| 20260831133932 | 27 | 0 | 3.2 | 6.4 | 0.00 | 0.00 | 0.00 | 89 | 1014.5 |
| 20260831133831 | 27 | 0 | 3.2 | 6.4 | 0.00 | 0.00 | 0.00 | 89 | 1014.4 |
| 20260831133732 | 27 | 0 | 3.2 | 6.4 | 0.00 | 0.00 | 0.00 | 89 | 1014.5 |
| 20260831133631 | 27 | 0 | 3.2 | 6.4 | 0.00 | 0.00 | 0.00 | 89 | 1014.5 |
| 20260831133531 | 27 | 0 | 4.8 | 6.4 | 0.00 | 0.00 | 0.00 | 89 | 1014.5 |
| 20260831133431 | 27 | 0 | 3.2 | 6.4 | 0.00 | 0.00 | 0.00 | 89 | 1014.6 |
| 20260831133332 | 27 | 0 | 3.2 | 6.4 | 0.00 | 0.00 | 0.00 | 89 | 1014.5 |
| 20260831133231 | 27 | 0 | 3.2 | 6.4 | 0.00 | 0.00 | 0.00 | 89 | 1014.5 |
| 20260831133132 | 27 | 0 | 3.2 | 4.8 | 0.00 | 0.00 | 0.00 | 89 | 1014.4 |
| 20260831133033 | 27 | 0 | 3.2 | 8.0 | 0.00 | 0.00 | 0.00 | 89 | 1014.4 |
| 20260831132932 | 27 | 0 | 3.2 | 8.0 | 0.00 | 0.00 | 0.00 | 89 | 1014.4 |
| 20260831132830 | 27 | 0 | 3.2 | 8.0 | 0.00 | 0.00 | 0.00 | 89 | 1014.4 |
| 20260831132731 | 27 | 0 | 3.2 | 8.0 | 0.00 | 0.00 | 0.00 | 89 | 1014.4 |
| 20260831132630 | 27 | 0 | 3.2 | 8.0 | 0.00 | 0.00 | 0.00 | 89 | 1014.3 |
| 20260831132531 | 27 | 0 | 1.6 | 8.0 | 0.00 | 0.00 | 0.00 | 89 | 1014.3 |
| 20260831132431 | 27 | 0 | 1.6 | 8.0 | 0.00 | 0.00 | 0.00 | 89 | 1014.3 |
| 20260831132330 | 27 | 0 | 3.2 | 8.0 | 0.00 | 0.00 | 0.00 | 89 | 1014.3 |
| 20260831132232 | 27 | 0 | 4.8 | 8.0 | 0.00 | 0.00 | 0.00 | 89 | 1014.3 |
| 20260831132130 | 27 | 0 | 4.8 | 8.0 | 0.00 | 0.00 | 0.00 | 89 | 1014.3 |
| 20260831132030 | 27 | 0 | 3.2 | 8.0 | 0.00 | 0.00 | 0.00 | 89 | 1014.2 |
| 20260831131931 | 27 | 0 | 3.2 | 8.0 | 0.00 | 0.00 | 0.00 | 89 | 1014.2 |
| 20260831131830 | 27 | 0 | 4.8 | 8.0 | 0.00 | 0.00 | 0.00 | 89 | 1014.2 |
| 20260831131728 | 27 | 0 | 4.8 | 8.0 | 0.00 | 0.00 | 0.00 | 89 | 1014.2 |
| 20260831131627 | 27 | 0 | 4.8 | 8.0 | 0.00 | 0.00 | 0.00 | 89 | 1014.1 |
| 20260831131525 | 27 | 351 | 3.2 | 6.4 | 0.00 | 0.00 | 0.00 | 89 | 1014.1 |
| 20260831131424 | 27 | 350 | 3.2 | 6.4 | 0.00 | 0.00 | 0.00 | 89 | 1014.1 |
| 20260831131323 | 27 | 350 | 3.2 | 6.4 | 0.00 | 0.00 | 0.00 | 89 | 1014.1 |
| 20260831131222 | 27 | 351 | 3.2 | 6.4 | 0.00 | 0.00 | 0.00 | 89 | 1014.1 |
| 20260831131119 | 27 | 351 | 3.2 | 6.4 | 0.00 | 0.00 | 0.00 | 89 | 1014.1 |
| 20260831131019 | 27 | 351 | 3.2 | 6.4 | 0.00 | 0.00 | 0.00 | 89 | 1014.0 |
| 20260831130917 | 27 | 351 | 3.2 | 6.4 | 0.00 | 0.00 | 0.00 | 89 | 1014.1 |
| 20260831130815 | 27 | 351 | 3.2 | 6.4 | 0.00 | 0.00 | 0.00 | 89 | 1014.1 |
| 20260831130715 | 27 | 351 | 3.2 | 6.4 | 0.00 | 0.00 | 0.00 | 89 | 1014.1 |
| 20260831130612 | 27 | 348 | 3.2 | 6.4 | 0.00 | 0.00 | 0.00 | 90 | 1014.1 |
| 20260831130510 | 27 | 348 | 3.2 | 6.4 | 0.00 | 0.00 | 0.00 | 90 | 1014.2 |
| 20260831130408 | 27 | 347 | 3.2 | 6.4 | 0.00 | 0.00 | 0.00 | 90 | 1014.1 |
| 20260831130309 | 27 | 347 | 4.8 | 6.4 | 0.00 | 0.00 | 0.00 | 90 | 1014.1 |
| 20260831130205 | 27 | 347 | 3.2 | 6.4 | 0.00 | 0.00 | 0.00 | 90 | 1014.1 |
| 20260831130107 | 27 | 337 | 3.2 | 4.8 | 0.00 | 0.00 | 0.00 | 90 | 1014.2 |
| 20260831130004 | 27 | 337 | 3.2 | 4.8 | 0.00 | 0.00 | 0.00 | 90 | 1014.1 |
| 20260831125902 | 27 | 337 | 3.2 | 4.8 | 0.00 | 0.00 | 0.00 | 90 | 1014.1 |
| 20260831125802 | 27 | 337 | 3.2 | 4.8 | 0.00 | 0.00 | 0.00 | 90 | 1014.1 |
| 20260831125704 | 27 | 336 | 3.2 | 4.8 | 0.00 | 0.00 | 0.00 | 90 | 1014.0 |
| 20260831125602 | 27 | 336 | 4.8 | 4.8 | 0.00 | 0.00 | 0.00 | 90 | 1014.0 |
| 20260831125502 | 27 | 336 | 3.2 | 4.8 | 0.00 | 0.00 | 0.00 | 90 | 1013.9 |
| 20260831125402 | 26 | 313 | 3.2 | 4.8 | 0.00 | 0.00 | 0.00 | 90 | 1013.9 |
| 20260831125306 | 26 | 0 | 3.2 | 4.8 | 0.00 | 0.00 | 0.00 | 90 | 1013.9 |
| 20260831125202 | 26 | 0 | 3.2 | 4.8 | 0.00 | 0.00 | 0.00 | 90 | 1013.9 |
| 20260831125101 | 26 | 0 | 3.2 | 4.8 | 0.00 | 0.00 | 0.00 | 90 | 1013.9 |
| 20260831125003 | 26 | 175 | 3.2 | 4.8 | 0.00 | 0.00 | 0.00 | 90 | 1013.8 |
| 20260831124902 | 26 | 169 | 1.6 | 4.8 | 0.00 | 0.00 | 0.00 | 90 | 1013.9 |
| 20260831124802 | 26 | 169 | 1.6 | 4.8 | 0.00 | 0.00 | 0.00 | 91 | 1013.8 |
| 20260831124702 | 26 | 0 | 1.6 | 4.8 | 0.00 | 0.00 | 0.00 | 91 | 1013.8 |
| 20260831124604 | 26 | 179 | 1.6 | 4.8 | 0.00 | 0.00 | 0.00 | 91 | 1013.7 |
| 20260831124502 | 26 | 188 | 1.6 | 4.8 | 0.00 | 0.00 | 0.00 | 91 | 1013.8 |
| 20260831124402 | 26 | 183 | 1.6 | 4.8 | 0.00 | 0.00 | 0.00 | 91 | 1013.7 |
| 20260831124303 | 26 | 183 | 3.2 | 4.8 | 0.00 | 0.00 | 0.00 | 91 | 1013.8 |
| 20260831124203 | 26 | 183 | 3.2 | 4.8 | 0.00 | 0.00 | 0.00 | 91 | 1013.7 |
| 20260831124102 | 26 | 0 | 3.2 | 4.8 | 0.00 | 0.00 | 0.00 | 91 | 1013.7 |
| 20260831124004 | 26 | 0 | 3.2 | 4.8 | 0.00 | 0.00 | 0.00 | 91 | 1013.7 |
| 20260831123903 | 26 | 0 | 3.2 | 4.8 | 0.00 | 0.00 | 0.00 | 91 | 1013.7 |
| 20260831123802 | 26 | 0 | 3.2 | 4.8 | 0.00 | 0.00 | 0.00 | 91 | 1013.7 |
| 20260831123702 | 26 | 0 | 1.6 | 4.8 | 0.00 | 0.00 | 0.00 | 91 | 1013.8 |
| 20260831123602 | 26 | 0 | 0.0 | 0.0 | 0.00 | 0.00 | 0.00 | 91 | 1013.7 |
| 20260831123503 | 26 | 0 | 0.0 | 0.0 | 0.00 | 0.00 | 0.00 | 91 | 1013.8 |
| 20260831123403 | 26 | 0 | 0.0 | 0.0 | 0.00 | 0.00 | 0.00 | 91 | 1013.8 |
| 20260831123302 | 26 | 237 | 0.0 | 0.0 | 0.00 | 0.00 | 0.00 | 91 | 1013.8 |
| 20260831123203 | 26 | 241 | 0.0 | 0.0 | 0.00 | 0.00 | 0.00 | 92 | 1013.9 |
| 20260831123102 | 26 | 241 | 0.0 | 0.0 | 0.00 | 0.00 | 0.00 | 92 | 1013.8 |
| 20260831123002 | 26 | 241 | 0.0 | 0.0 | 0.00 | 0.00 | 0.00 | 92 | 1013.9 |
| 20260831122904 | 26 | 241 | 0.0 | 0.0 | 0.00 | 0.00 | 0.00 | 92 | 1013.7 |
| 20260831122804 | 26 | 241 | 0.0 | 0.0 | 0.00 | 0.00 | 0.00 | 92 | 1013.7 |
| 20260831122703 | 26 | 241 | 0.0 | 0.0 | 0.00 | 0.00 | 0.00 | 92 | 1013.8 |
| 20260831122603 | 26 | 241 | 0.0 | 0.0 | 0.00 | 0.00 | 0.00 | 92 | 1013.7 |
| 20260831122504 | 26 | 241 | 0.0 | 0.0 | 0.00 | 0.00 | 0.00 | 92 | 1013.7 |
| 20260831122403 | 26 | 241 | 0.0 | 1.6 | 0.00 | 0.00 | 0.00 | 92 | 1013.7 |
| 20260831122305 | 26 | 241 | 0.0 | 3.2 | 0.00 | 0.00 | 0.00 | 92 | 1013.7 |
| 20260831122203 | 26 | 241 | 0.0 | 3.2 | 0.00 | 0.00 | 0.00 | 92 | 1013.6 |
| 20260831122102 | 26 | 241 | 0.0 | 4.8 | 0.00 | 0.00 | 0.00 | 92 | 1013.6 |
| 20260831122003 | 26 | 241 | 0.0 | 4.8 | 0.00 | 0.00 | 0.00 | 92 | 1013.6 |
| 20260831121903 | 26 | 241 | 0.0 | 4.8 | 0.00 | 0.00 | 0.00 | 92 | 1013.5 |
| 20260831121803 | 26 | 241 | 0.0 | 4.8 | 0.00 | 0.00 | 0.00 | 92 | 1013.4 |
| 20260831121703 | 26 | 241 | 0.0 | 4.8 | 0.00 | 0.00 | 0.00 | 92 | 1013.4 |
| 20260831121603 | 26 | 241 | 0.0 | 4.8 | 0.00 | 0.00 | 0.00 | 92 | 1013.4 |
| 20260831121503 | 26 | 241 | 1.6 | 4.8 | 0.00 | 0.00 | 0.00 | 92 | 1013.4 |
| 20260831121402 | 26 | 241 | 1.6 | 4.8 | 0.00 | 0.00 | 0.00 | 92 | 1013.3 |
| 20260831121302 | 26 | 241 | 3.2 | 4.8 | 0.00 | 0.00 | 0.00 | 92 | 1013.2 |
| 20260831121204 | 26 | 241 | 3.2 | 4.8 | 0.00 | 0.00 | 0.00 | 92 | 1013.3 |
| 20260831121102 | 25 | 210 | 0.0 | 3.2 | 0.00 | 0.00 | 0.00 | 92 | 1013.3 |
| 20260831121003 | 25 | 209 | 0.0 | 0.0 | 0.00 | 0.00 | 0.00 | 92 | 1013.3 |
| 20260831120903 | 25 | 209 | 0.0 | 0.0 | 0.00 | 0.00 | 0.00 | 92 | 1013.3 |
| 20260831120802 | 25 | 209 | 0.0 | 0.0 | 0.00 | 0.00 | 0.00 | 92 | 1013.3 |
| 20260831120702 | 25 | 209 | 0.0 | 0.0 | 0.00 | 0.00 | 0.00 | 92 | 1013.3 |
| 20260831120603 | 25 | 209 | 0.0 | 0.0 | 0.00 | 0.00 | 0.00 | 92 | 1013.4 |
| 20260831120503 | 25 | 209 | 0.0 | 0.0 | 0.00 | 0.00 | 0.00 | 92 | 1013.3 |
| 20260831120402 | 25 | 209 | 0.0 | 0.0 | 0.00 | 0.00 | 0.00 | 92 | 1013.3 |
| 20260831120303 | 25 | 209 | 0.0 | 0.0 | 0.00 | 0.00 | 0.00 | 92 | 1013.3 |
| 20260831120204 | 25 | 209 | 0.0 | 0.0 | 0.00 | 0.00 | 0.00 | 92 | 1013.3 |
| 20260831120004 | 25 | 209 | 0.0 | 0.0 | 0.00 | 0.00 | 0.00 | 92 | 1013.3 |
| 20260831115903 | 25 | 209 | 0.0 | 0.0 | 0.00 | 0.00 | 0.00 | 92 | 1013.2 |
| 20260831115803 | 25 | 209 | 0.0 | 0.0 | 0.00 | 0.00 | 0.00 | 91 | 1013.3 |
| 20260831115702 | 25 | 207 | 0.0 | 0.0 | 0.00 | 0.00 | 0.00 | 91 | 1013.3 |
| 20260831115602 | 25 | 207 | 0.0 | 0.0 | 0.00 | 0.00 | 0.00 | 91 | 1013.3 |
| 20260831115505 | 25 | 207 | 0.0 | 0.0 | 0.00 | 0.00 | 0.00 | 91 | 1013.3 |
| 20260831115402 | 25 | 207 | 0.0 | 0.0 | 0.00 | 0.00 | 0.00 | 91 | 1013.3 |
| 20260831115306 | 25 | 207 | 0.0 | 0.0 | 0.00 | 0.00 | 0.00 | 91 | 1013.3 |
| 20260831115204 | 25 | 207 | 0.0 | 0.0 | 0.00 | 0.00 | 0.00 | 91 | 1013.3 |
| 20260831115102 | 26 | 206 | 0.0 | 0.0 | 0.00 | 0.00 | 0.00 | 91 | 1013.2 |
| 20260831115003 | 26 | 206 | 0.0 | 0.0 | 0.00 | 0.00 | 0.00 | 91 | 1013.3 |
| 20260831114902 | 26 | 206 | 0.0 | 0.0 | 0.00 | 0.00 | 0.00 | 91 | 1013.3 |
| 20260831114804 | 26 | 206 | 0.0 | 0.0 | 0.00 | 0.00 | 0.00 | 91 | 1013.2 |
| 20260831114702 | 26 | 206 | 0.0 | 0.0 | 0.00 | 0.00 | 0.00 | 91 | 1013.2 |
| 20260831114602 | 26 | 206 | 0.0 | 0.0 | 0.00 | 0.00 | 0.00 | 91 | 1013.3 |
| 20260831114504 | 26 | 206 | 0.0 | 0.0 | 0.00 | 0.00 | 0.00 | 91 | 1013.2 |
| 20260831114402 | 26 | 206 | 0.0 | 0.0 | 0.00 | 0.00 | 0.00 | 91 | 1013.2 |
| 20260831114302 | 26 | 206 | 0.0 | 0.0 | 0.00 | 0.00 | 0.00 | 91 | 1013.3 |
| 20260831114204 | 26 | 206 | 0.0 | 0.0 | 0.00 | 0.00 | 0.00 | 91 | 1013.3 |
| 20260831114103 | 26 | 206 | 0.0 | 0.0 | 0.00 | 0.00 | 0.00 | 91 | 1013.3 |
| 20260831114002 | 26 | 206 | 0.0 | 0.0 | 0.00 | 0.00 | 0.00 | 91 | 1013.3 |
| 20260831113903 | 26 | 206 | 0.0 | 0.0 | 0.00 | 0.00 | 0.00 | 91 | 1013.3 |
| 20260831113802 | 26 | 206 | 0.0 | 0.0 | 0.00 | 0.00 | 0.00 | 91 | 1013.3 |
| 20260831113702 | 26 | 206 | 0.0 | 0.0 | 0.00 | 0.00 | 0.00 | 91 | 1013.3 |
| 20260831113602 | 26 | 206 | 0.0 | 0.0 | 0.00 | 0.00 | 0.00 | 90 | 1013.4 |
| 20260831113505 | 26 | 206 | 0.0 | 0.0 | 0.00 | 0.00 | 0.00 | 90 | 1013.3 |
| 20260831113402 | 26 | 206 | 0.0 | 0.0 | 0.00 | 0.00 | 0.00 | 90 | 1013.3 |
| 20260831113302 | 26 | 206 | 0.0 | 0.0 | 0.00 | 0.00 | 0.00 | 90 | 1013.3 |
| 20260831113203 | 26 | 206 | 0.0 | 0.0 | 0.00 | 0.00 | 0.00 | 90 | 1013.3 |
| 20260831113104 | 26 | 206 | 0.0 | 0.0 | 0.00 | 0.00 | 0.00 | 90 | 1013.2 |
| 20260831113003 | 26 | 206 | 0.0 | 0.0 | 0.00 | 0.00 | 0.00 | 90 | 1013.2 |
| 20260831112902 | 26 | 206 | 0.0 | 0.0 | 0.00 | 0.00 | 0.00 | 90 | 1013.2 |
| 20260831112803 | 26 | 206 | 0.0 | 0.0 | 0.00 | 0.00 | 0.00 | 90 | 1013.1 |
| 20260831112704 | 26 | 206 | 0.0 | 0.0 | 0.00 | 0.00 | 0.00 | 90 | 1013.1 |
| 20260831112604 | 26 | 206 | 0.0 | 0.0 | 0.00 | 0.00 | 0.00 | 90 | 1013.1 |
| 20260831112502 | 26 | 206 | 0.0 | 0.0 | 0.00 | 0.00 | 0.00 | 90 | 1013.1 |
| 20260831112402 | 26 | 206 | 0.0 | 0.0 | 0.00 | 0.00 | 0.00 | 90 | 1013.1 |
| 20260831112306 | 26 | 206 | 0.0 | 0.0 | 0.00 | 0.00 | 0.00 | 90 | 1013.1 |
| 20260831112202 | 26 | 206 | 0.0 | 0.0 | 0.00 | 0.00 | 0.00 | 90 | 1013.2 |
| 20260831112104 | 26 | 206 | 0.0 | 0.0 | 0.00 | 0.00 | 0.00 | 90 | 1013.2 |
| 20260831112003 | 26 | 206 | 0.0 | 0.0 | 0.00 | 0.00 | 0.00 | 90 | 1013.2 |
| 20260831111902 | 26 | 206 | 0.0 | 0.0 | 0.00 | 0.00 | 0.00 | 90 | 1013.2 |
| 20260831111804 | 26 | 206 | 0.0 | 0.0 | 0.00 | 0.00 | 0.00 | 90 | 1013.3 |
| 20260831111703 | 26 | 206 | 0.0 | 0.0 | 0.00 | 0.00 | 0.00 | 90 | 1013.2 |
| 20260831111603 | 26 | 206 | 0.0 | 0.0 | 0.00 | 0.00 | 0.00 | 90 | 1013.2 |
| 20260831111503 | 26 | 206 | 0.0 | 0.0 | 0.00 | 0.00 | 0.00 | 90 | 1013.2 |
| 20260831111404 | 26 | 206 | 0.0 | 0.0 | 0.00 | 0.00 | 0.00 | 90 | 1013.1 |
| 20260831111303 | 26 | 206 | 0.0 | 0.0 | 0.00 | 0.00 | 0.00 | 90 | 1013.0 |
| 20260831111203 | 26 | 206 | 0.0 | 0.0 | 0.00 | 0.00 | 0.00 | 90 | 1013.1 |
| 20260831111104 | 26 | 206 | 0.0 | 0.0 | 0.00 | 0.00 | 0.00 | 90 | 1013.1 |
| 20260831111004 | 26 | 206 | 0.0 | 0.0 | 0.00 | 0.00 | 0.00 | 90 | 1013.1 |
| 20260831110901 | 26 | 206 | 0.0 | 0.0 | 0.00 | 0.00 | 0.00 | 90 | 1013.1 |
| 20260831110802 | 26 | 206 | 0.0 | 0.0 | 0.00 | 0.00 | 0.00 | 90 | 1013.1 |
| 20260831110704 | 26 | 206 | 0.0 | 0.0 | 0.00 | 0.00 | 0.00 | 90 | 1013.0 |
| 20260831110602 | 26 | 206 | 0.0 | 0.0 | 0.00 | 0.00 | 0.00 | 90 | 1013.0 |
| 20260831110502 | 26 | 206 | 0.0 | 0.0 | 0.00 | 0.00 | 0.00 | 89 | 1013.0 |
| 20260831110403 | 26 | 206 | 0.0 | 0.0 | 0.00 | 0.00 | 0.00 | 89 | 1013.1 |
| 20260831110302 | 26 | 206 | 0.0 | 0.0 | 0.00 | 0.00 | 0.00 | 89 | 1013.1 |
| 20260831110203 | 26 | 206 | 0.0 | 0.0 | 0.00 | 0.00 | 0.00 | 89 | 1013.1 |
| 20260831110103 | 26 | 206 | 0.0 | 0.0 | 0.00 | 0.00 | 0.00 | 89 | 1013.2 |
| 20260831110003 | 26 | 206 | 0.0 | 0.0 | 0.00 | 0.00 | 0.00 | 89 | 1013.2 |
| 20260831105902 | 26 | 206 | 0.0 | 1.6 | 0.00 | 0.00 | 0.00 | 89 | 1013.1 |
| 20260831105802 | 26 | 206 | 0.0 | 3.2 | 0.00 | 0.00 | 0.00 | 89 | 1013.1 |
| 20260831105703 | 26 | 206 | 0.0 | 3.2 | 0.00 | 0.00 | 0.00 | 89 | 1013.0 |
| 20260831105602 | 26 | 206 | 0.0 | 3.2 | 0.00 | 0.00 | 0.00 | 88 | 1013.2 |
| 20260831105503 | 26 | 206 | 0.0 | 3.2 | 0.00 | 0.00 | 0.00 | 88 | 1013.1 |
| 20260831105404 | 26 | 206 | 0.0 | 3.2 | 0.00 | 0.00 | 0.00 | 88 | 1013.2 |
| 20260831105306 | 26 | 206 | 0.0 | 3.2 | 0.00 | 0.00 | 0.00 | 88 | 1013.1 |
| 20260831105200 | 26 | 206 | 0.0 | 3.2 | 0.00 | 0.00 | 0.00 | 89 | 1013.1 |
| 20260831105059 | 26 | 206 | 0.0 | 3.2 | 0.00 | 0.00 | 0.00 | 89 | 1013.1 |
| 20260831104957 | 26 | 206 | 1.6 | 3.2 | 0.00 | 0.00 | 0.00 | 89 | 1013.1 |
| 20260831104856 | 26 | 206 | 1.6 | 3.2 | 0.00 | 0.00 | 0.00 | 89 | 1013.1 |
| 20260831104756 | 26 | 206 | 1.6 | 3.2 | 0.00 | 0.00 | 0.00 | 89 | 1013.1 |
| 20260831104652 | 26 | 203 | 1.6 | 3.2 | 0.00 | 0.00 | 0.00 | 89 | 1013.1 |
| 20260831104552 | 26 | 196 | 0.0 | 0.0 | 0.00 | 0.00 | 0.00 | 89 | 1013.1 |
| 20260831104450 | 26 | 196 | 0.0 | 0.0 | 0.00 | 0.00 | 0.00 | 89 | 1013.1 |
| 20260831104349 | 26 | 196 | 0.0 | 0.0 | 0.00 | 0.00 | 0.00 | 89 | 1013.0 |
| 20260831104247 | 26 | 196 | 0.0 | 0.0 | 0.00 | 0.00 | 0.00 | 89 | 1013.0 |
| 20260831104145 | 26 | 195 | 0.0 | 0.0 | 0.00 | 0.00 | 0.00 | 90 | 1013.0 |
| 20260831104043 | 26 | 195 | 0.0 | 0.0 | 0.00 | 0.00 | 0.00 | 90 | 1013.0 |
| 20260831103941 | 26 | 195 | 0.0 | 0.0 | 0.00 | 0.00 | 0.00 | 90 | 1013.0 |
| 20260831103842 | 26 | 193 | 0.0 | 0.0 | 0.00 | 0.00 | 0.00 | 90 | 1013.0 |
| 20260831103741 | 26 | 192 | 0.0 | 0.0 | 0.00 | 0.00 | 0.00 | 90 | 1013.0 |
| 20260831103639 | 26 | 192 | 0.0 | 0.0 | 0.00 | 0.00 | 0.00 | 90 | 1013.0 |
| 20260831103536 | 26 | 192 | 0.0 | 0.0 | 0.00 | 0.00 | 0.00 | 90 | 1013.0 |
| 20260831103435 | 26 | 192 | 0.0 | 0.0 | 0.00 | 0.00 | 0.00 | 90 | 1013.0 |
| 20260831103334 | 26 | 190 | 0.0 | 0.0 | 0.00 | 0.00 | 0.00 | 90 | 1013.0 |
| 20260831103232 | 26 | 190 | 0.0 | 0.0 | 0.00 | 0.00 | 0.00 | 91 | 1013.0 |
| 20260831103128 | 26 | 190 | 0.0 | 0.0 | 0.00 | 0.00 | 0.00 | 90 | 1013.1 |
| 20260831103026 | 26 | 190 | 0.0 | 0.0 | 0.00 | 0.00 | 0.00 | 90 | 1013.0 |
| 20260831102927 | 26 | 190 | 0.0 | 0.0 | 0.00 | 0.00 | 0.00 | 90 | 1013.1 |
| 20260831102828 | 26 | 190 | 0.0 | 0.0 | 0.00 | 0.00 | 0.00 | 90 | 1013.0 |
| 20260831102727 | 26 | 190 | 0.0 | 0.0 | 0.00 | 0.00 | 0.00 | 90 | 1012.9 |
| 20260831102626 | 26 | 190 | 0.0 | 0.0 | 0.00 | 0.00 | 0.00 | 90 | 1012.9 |
| 20260831102528 | 26 | 190 | 0.0 | 0.0 | 0.00 | 0.00 | 0.00 | 90 | 1013.0 |
| 20260831102428 | 26 | 190 | 0.0 | 0.0 | 0.00 | 0.00 | 0.00 | 90 | 1013.0 |
| 20260831102328 | 26 | 190 | 0.0 | 0.0 | 0.00 | 0.00 | 0.00 | 90 | 1013.0 |
| 20260831102228 | 26 | 190 | 0.0 | 0.0 | 0.00 | 0.00 | 0.00 | 90 | 1013.0 |
| 20260831102126 | 26 | 190 | 0.0 | 0.0 | 0.00 | 0.00 | 0.00 | 90 | 1013.1 |
| 20260831102027 | 26 | 190 | 0.0 | 0.0 | 0.00 | 0.00 | 0.00 | 90 | 1013.1 |
| 20260831101927 | 26 | 190 | 0.0 | 0.0 | 0.00 | 0.00 | 0.00 | 90 | 1013.1 |
| 20260831101826 | 26 | 190 | 0.0 | 0.0 | 0.00 | 0.00 | 0.00 | 90 | 1013.2 |
| 20260831101728 | 26 | 190 | 0.0 | 0.0 | 0.00 | 0.00 | 0.00 | 90 | 1013.1 |
| 20260831101627 | 26 | 190 | 0.0 | 0.0 | 0.00 | 0.00 | 0.00 | 90 | 1013.1 |
| 20260831101527 | 26 | 189 | 0.0 | 0.0 | 0.00 | 0.00 | 0.00 | 90 | 1013.2 |
| 20260831101427 | 26 | 188 | 0.0 | 0.0 | 0.00 | 0.00 | 0.00 | 90 | 1013.1 |
| 20260831101328 | 26 | 186 | 0.0 | 0.0 | 0.00 | 0.00 | 0.00 | 90 | 1013.1 |
| 20260831101227 | 26 | 186 | 0.0 | 0.0 | 0.00 | 0.00 | 0.00 | 90 | 1013.2 |
| 20260831101127 | 26 | 186 | 0.0 | 0.0 | 0.00 | 0.00 | 0.00 | 90 | 1013.2 |
| 20260831101026 | 26 | 186 | 0.0 | 0.0 | 0.00 | 0.00 | 0.00 | 90 | 1013.2 |
| 20260831100926 | 26 | 186 | 0.0 | 0.0 | 0.00 | 0.00 | 0.00 | 90 | 1013.2 |
| 20260831100827 | 26 | 186 | 0.0 | 0.0 | 0.00 | 0.00 | 0.00 | 90 | 1013.3 |
| 20260831100726 | 26 | 186 | 0.0 | 0.0 | 0.00 | 0.00 | 0.00 | 90 | 1013.3 |
| 20260831100626 | 26 | 186 | 0.0 | 0.0 | 0.00 | 0.00 | 0.00 | 90 | 1013.3 |
| 20260831100526 | 26 | 186 | 0.0 | 0.0 | 0.00 | 0.00 | 0.00 | 90 | 1013.3 |
| 20260831100427 | 26 | 186 | 0.0 | 0.0 | 0.00 | 0.00 | 0.00 | 90 | 1013.3 |
| 20260831100326 | 26 | 186 | 0.0 | 0.0 | 0.00 | 0.00 | 0.00 | 90 | 1013.2 |
| 20260831100226 | 26 | 186 | 0.0 | 0.0 | 0.00 | 0.00 | 0.00 | 90 | 1013.2 |
| 20260831100129 | 26 | 186 | 0.0 | 0.0 | 0.00 | 0.00 | 0.00 | 90 | 1013.2 |
| 20260831100025 | 26 | 186 | 0.0 | 0.0 | 0.00 | 0.00 | 0.00 | 90 | 1013.2 |
| 20260831095927 | 26 | 186 | 0.0 | 0.0 | 0.00 | 0.00 | 0.00 | 90 | 1013.2 |
| 20260831095827 | 26 | 186 | 0.0 | 0.0 | 0.00 | 0.00 | 0.00 | 90 | 1013.2 |
| 20260831095726 | 26 | 186 | 0.0 | 0.0 | 0.00 | 0.00 | 0.00 | 90 | 1013.3 |
| 20260831095626 | 26 | 186 | 0.0 | 0.0 | 0.00 | 0.00 | 0.00 | 90 | 1013.3 |
| 20260831095526 | 26 | 186 | 0.0 | 0.0 | 0.00 | 0.00 | 0.00 | 90 | 1013.3 |
| 20260831095428 | 26 | 186 | 0.0 | 0.0 | 0.00 | 0.00 | 0.00 | 90 | 1013.3 |
| 20260831095326 | 26 | 186 | 0.0 | 0.0 | 0.00 | 0.00 | 0.00 | 90 | 1013.3 |
| 20260831095225 | 26 | 186 | 0.0 | 0.0 | 0.00 | 0.00 | 0.00 | 90 | 1013.3 |
| 20260831095125 | 26 | 186 | 0.0 | 0.0 | 0.00 | 0.00 | 0.00 | 90 | 1013.3 |
| 20260831095025 | 26 | 186 | 0.0 | 0.0 | 0.00 | 0.00 | 0.00 | 90 | 1013.2 |
| 20260831094925 | 26 | 186 | 0.0 | 0.0 | 0.00 | 0.00 | 0.00 | 90 | 1013.3 |
| 20260831094826 | 26 | 186 | 0.0 | 0.0 | 0.00 | 0.00 | 0.00 | 90 | 1013.2 |
| 20260831094727 | 26 | 186 | 0.0 | 1.6 | 0.00 | 0.00 | 0.00 | 90 | 1013.2 |
| 20260831094626 | 26 | 186 | 0.0 | 3.2 | 0.00 | 0.00 | 0.00 | 90 | 1013.2 |
| 20260831094526 | 26 | 186 | 0.0 | 3.2 | 0.00 | 0.00 | 0.00 | 90 | 1013.2 |
| 20260831094428 | 26 | 186 | 0.0 | 3.2 | 0.00 | 0.00 | 0.00 | 90 | 1013.2 |
| 20260831094326 | 26 | 185 | 0.0 | 3.2 | 0.00 | 0.00 | 0.00 | 90 | 1013.2 |
| 20260831094225 | 26 | 185 | 0.0 | 3.2 | 0.00 | 0.00 | 0.00 | 90 | 1013.2 |
| 20260831094125 | 26 | 185 | 0.0 | 3.2 | 0.00 | 0.00 | 0.00 | 90 | 1013.2 |
| 20260831094026 | 26 | 185 | 0.0 | 3.2 | 0.00 | 0.00 | 0.00 | 90 | 1013.1 |
| 20260831093925 | 26 | 185 | 0.0 | 3.2 | 0.00 | 0.00 | 0.00 | 90 | 1013.1 |
| 20260831093825 | 26 | 185 | 1.6 | 3.2 | 0.00 | 0.00 | 0.00 | 89 | 1013.1 |
| 20260831093726 | 26 | 183 | 1.6 | 3.2 | 0.00 | 0.00 | 0.00 | 90 | 1013.1 |
| 20260831093625 | 26 | 182 | 1.6 | 3.2 | 0.00 | 0.00 | 0.00 | 89 | 1013.1 |
| 20260831093525 | 26 | 182 | 1.6 | 3.2 | 0.00 | 0.00 | 0.00 | 89 | 1013.0 |
| 20260831093425 | 26 | 180 | 1.6 | 3.2 | 0.00 | 0.00 | 0.00 | 89 | 1013.1 |
| 20260831093327 | 26 | 176 | 0.0 | 3.2 | 0.00 | 0.00 | 0.00 | 89 | 1013.1 |
| 20260831093225 | 26 | 176 | 1.6 | 3.2 | 0.00 | 0.00 | 0.00 | 90 | 1013.1 |
| 20260831093125 | 26 | 176 | 1.6 | 3.2 | 0.00 | 0.00 | 0.00 | 90 | 1013.1 |
| 20260831093026 | 26 | 176 | 0.0 | 1.6 | 0.00 | 0.00 | 0.00 | 90 | 1013.1 |
| 20260831092925 | 26 | 176 | 0.0 | 0.0 | 0.00 | 0.00 | 0.00 | 90 | 1013.0 |
| 20260831092825 | 26 | 176 | 0.0 | 0.0 | 0.00 | 0.00 | 0.00 | 90 | 1013.0 |
| 20260831092725 | 26 | 176 | 0.0 | 0.0 | 0.00 | 0.00 | 0.00 | 90 | 1013.0 |
| 20260831092625 | 26 | 176 | 0.0 | 0.0 | 0.00 | 0.00 | 0.00 | 90 | 1013.0 |
| 20260831092525 | 26 | 176 | 0.0 | 0.0 | 0.00 | 0.00 | 0.00 | 90 | 1013.0 |
| 20260831092426 | 26 | 176 | 0.0 | 0.0 | 0.00 | 0.00 | 0.00 | 90 | 1013.0 |
| 20260831092327 | 26 | 176 | 0.0 | 0.0 | 0.00 | 0.00 | 0.00 | 90 | 1013.1 |
| 20260831092225 | 26 | 176 | 0.0 | 0.0 | 0.00 | 0.00 | 0.00 | 89 | 1013.1 |
| 20260831092125 | 26 | 176 | 0.0 | 0.0 | 0.00 | 0.00 | 0.00 | 90 | 1013.0 |
| 20260831092026 | 26 | 176 | 0.0 | 0.0 | 0.00 | 0.00 | 0.00 | 89 | 1013.1 |
| 20260831091925 | 26 | 176 | 0.0 | 0.0 | 0.00 | 0.00 | 0.00 | 89 | 1013.0 |
| 20260831091824 | 26 | 176 | 0.0 | 0.0 | 0.00 | 0.00 | 0.00 | 89 | 1013.0 |
| 20260831091725 | 26 | 176 | 0.0 | 1.6 | 0.00 | 0.00 | 0.00 | 89 | 1013.0 |
| 20260831091625 | 26 | 176 | 0.0 | 3.2 | 0.00 | 0.00 | 0.00 | 89 | 1013.1 |
| 20260831091525 | 26 | 176 | 0.0 | 3.2 | 0.00 | 0.00 | 0.00 | 89 | 1013.0 |
| 20260831091425 | 26 | 176 | 0.0 | 3.2 | 0.00 | 0.00 | 0.00 | 89 | 1013.0 |
| 20260831091325 | 26 | 176 | 0.0 | 3.2 | 0.00 | 0.00 | 0.00 | 89 | 1013.0 |
| 20260831091224 | 26 | 176 | 0.0 | 3.2 | 0.00 | 0.00 | 0.00 | 89 | 1012.9 |
| 20260831091125 | 26 | 176 | 0.0 | 3.2 | 0.00 | 0.00 | 0.00 | 89 | 1012.9 |
| 20260831091025 | 26 | 176 | 0.0 | 3.2 | 0.00 | 0.00 | 0.00 | 89 | 1012.9 |
| 20260831090925 | 26 | 176 | 0.0 | 3.2 | 0.00 | 0.00 | 0.00 | 89 | 1013.0 |
| 20260831090824 | 26 | 176 | 0.0 | 3.2 | 0.00 | 0.00 | 0.00 | 89 | 1013.0 |
| 20260831090724 | 26 | 176 | 1.6 | 3.2 | 0.00 | 0.00 | 0.00 | 89 | 1013.0 |
| 20260831090625 | 26 | 176 | 1.6 | 3.2 | 0.00 | 0.00 | 0.00 | 89 | 1012.9 |
| 20260831090525 | 26 | 176 | 1.6 | 3.2 | 0.00 | 0.00 | 0.00 | 89 | 1012.9 |
| 20260831090426 | 26 | 176 | 0.0 | 3.2 | 0.00 | 0.00 | 0.00 | 89 | 1013.0 |
| 20260831090325 | 26 | 176 | 0.0 | 0.0 | 0.00 | 0.00 | 0.00 | 89 | 1013.0 |
| 20260831090226 | 26 | 169 | 0.0 | 0.0 | 0.00 | 0.00 | 0.00 | 89 | 1013.0 |
| 20260831090124 | 26 | 169 | 0.0 | 0.0 | 0.00 | 0.00 | 0.00 | 89 | 1013.0 |
| 20260831090025 | 26 | 169 | 0.0 | 0.0 | 0.00 | 0.00 | 0.00 | 89 | 1013.1 |
| 20260831085925 | 26 | 169 | 0.0 | 0.0 | 0.00 | 0.00 | 0.00 | 89 | 1013.1 |
| 20260831085824 | 26 | 169 | 0.0 | 0.0 | 0.00 | 0.00 | 0.00 | 89 | 1013.0 |
| 20260831085725 | 26 | 169 | 0.0 | 0.0 | 0.00 | 0.00 | 0.00 | 90 | 1013.0 |
| 20260831085625 | 26 | 169 | 0.0 | 0.0 | 0.00 | 0.00 | 0.00 | 89 | 1013.1 |
| 20260831085526 | 26 | 169 | 0.0 | 0.0 | 0.00 | 0.00 | 0.00 | 89 | 1013.1 |
| 20260831085424 | 26 | 169 | 0.0 | 0.0 | 0.00 | 0.00 | 0.00 | 90 | 1013.0 |
| 20260831085325 | 26 | 169 | 0.0 | 0.0 | 0.00 | 0.00 | 0.00 | 89 | 1013.1 |
| 20260831085225 | 26 | 169 | 0.0 | 0.0 | 0.00 | 0.00 | 0.00 | 89 | 1013.1 |
| 20260831085124 | 26 | 169 | 0.0 | 0.0 | 0.00 | 0.00 | 0.00 | 89 | 1013.1 |
| 20260831085025 | 26 | 169 | 0.0 | 0.0 | 0.00 | 0.00 | 0.00 | 89 | 1013.1 |
| 20260831084925 | 26 | 169 | 0.0 | 0.0 | 0.00 | 0.00 | 0.00 | 90 | 1013.1 |
| 20260831084825 | 26 | 169 | 0.0 | 0.0 | 0.00 | 0.00 | 0.00 | 90 | 1013.1 |
| 20260831084724 | 26 | 169 | 0.0 | 0.0 | 0.00 | 0.00 | 0.00 | 90 | 1013.1 |
| 20260831084625 | 26 | 169 | 0.0 | 0.0 | 0.00 | 0.00 | 0.00 | 90 | 1013.2 |
| 20260831084526 | 26 | 169 | 0.0 | 0.0 | 0.00 | 0.00 | 0.00 | 90 | 1013.2 |
| 20260831084425 | 26 | 169 | 0.0 | 0.0 | 0.00 | 0.00 | 0.00 | 90 | 1013.2 |
| 20260831084324 | 26 | 169 | 0.0 | 0.0 | 0.00 | 0.00 | 0.00 | 90 | 1013.2 |
| 20260831084224 | 26 | 169 | 0.0 | 0.0 | 0.00 | 0.00 | 0.00 | 90 | 1013.2 |
| 20260831084125 | 26 | 169 | 0.0 | 0.0 | 0.00 | 0.00 | 0.00 | 90 | 1013.1 |
| 20260831084024 | 26 | 169 | 0.0 | 0.0 | 0.00 | 0.00 | 0.00 | 90 | 1013.2 |
| 20260831083924 | 26 | 169 | 0.0 | 0.0 | 0.00 | 0.00 | 0.00 | 90 | 1013.3 |
| 20260831083825 | 26 | 169 | 0.0 | 0.0 | 0.00 | 0.00 | 0.00 | 90 | 1013.1 |
| 20260831083724 | 26 | 169 | 0.0 | 0.0 | 0.00 | 0.00 | 0.00 | 90 | 1013.2 |
| 20260831083624 | 26 | 169 | 0.0 | 0.0 | 0.00 | 0.00 | 0.00 | 90 | 1013.2 |
| 20260831083525 | 26 | 169 | 0.0 | 0.0 | 0.00 | 0.00 | 0.00 | 90 | 1013.2 |
| 20260831083426 | 26 | 169 | 0.0 | 0.0 | 0.00 | 0.00 | 0.00 | 90 | 1013.2 |
| 20260831083324 | 26 | 169 | 0.0 | 0.0 | 0.00 | 0.00 | 0.00 | 90 | 1013.1 |
| 20260831083224 | 26 | 169 | 0.0 | 0.0 | 0.00 | 0.00 | 0.00 | 90 | 1013.2 |
| 20260831083125 | 26 | 169 | 0.0 | 0.0 | 0.00 | 0.00 | 0.00 | 90 | 1013.3 |
| 20260831083025 | 26 | 169 | 0.0 | 0.0 | 0.00 | 0.00 | 0.00 | 90 | 1013.3 |
| 20260831082924 | 26 | 169 | 0.0 | 0.0 | 0.00 | 0.00 | 0.00 | 90 | 1013.3 |
| 20260831082823 | 26 | 169 | 0.0 | 0.0 | 0.00 | 0.00 | 0.00 | 90 | 1013.3 |
| 20260831082720 | 26 | 169 | 0.0 | 0.0 | 0.00 | 0.00 | 0.00 | 90 | 1013.3 |
| 20260831082619 | 26 | 169 | 0.0 | 0.0 | 0.00 | 0.00 | 0.00 | 90 | 1013.2 |
| 20260831082518 | 26 | 169 | 0.0 | 0.0 | 0.00 | 0.00 | 0.00 | 89 | 1013.3 |
| 20260831082417 | 26 | 169 | 0.0 | 0.0 | 0.00 | 0.00 | 0.00 | 89 | 1013.3 |
| 20260831082314 | 26 | 169 | 0.0 | 0.0 | 0.00 | 0.00 | 0.00 | 89 | 1013.2 |
| 20260831082214 | 26 | 169 | 0.0 | 0.0 | 0.00 | 0.00 | 0.00 | 89 | 1013.3 |
| 20260831082112 | 26 | 169 | 0.0 | 0.0 | 0.00 | 0.00 | 0.00 | 89 | 1013.3 |
| 20260831082009 | 26 | 169 | 0.0 | 0.0 | 0.00 | 0.00 | 0.00 | 89 | 1013.2 |
| 20260831081910 | 26 | 169 | 0.0 | 0.0 | 0.00 | 0.00 | 0.00 | 89 | 1013.3 |
| 20260831081806 | 26 | 169 | 0.0 | 0.0 | 0.00 | 0.00 | 0.00 | 89 | 1013.4 |
| 20260831081704 | 26 | 169 | 0.0 | 0.0 | 0.00 | 0.00 | 0.00 | 89 | 1013.3 |
| 20260831081603 | 26 | 169 | 0.0 | 0.0 | 0.00 | 0.00 | 0.00 | 89 | 1013.4 |
| 20260831081502 | 26 | 169 | 0.0 | 0.0 | 0.00 | 0.00 | 0.00 | 89 | 1013.4 |
| 20260831081403 | 26 | 169 | 0.0 | 0.0 | 0.00 | 0.00 | 0.00 | 89 | 1013.3 |
| 20260831081303 | 26 | 169 | 0.0 | 0.0 | 0.00 | 0.00 | 0.00 | 89 | 1013.3 |
| 20260831081201 | 26 | 169 | 0.0 | 0.0 | 0.00 | 0.00 | 0.00 | 89 | 1013.4 |
| 20260831081103 | 26 | 169 | 0.0 | 0.0 | 0.00 | 0.00 | 0.00 | 89 | 1013.3 |
| 20260831081003 | 26 | 169 | 0.0 | 0.0 | 0.00 | 0.00 | 0.00 | 89 | 1013.4 |
| 20260831080902 | 26 | 169 | 0.0 | 0.0 | 0.00 | 0.00 | 0.00 | 89 | 1013.3 |
| 20260831080803 | 26 | 169 | 0.0 | 0.0 | 0.00 | 0.00 | 0.00 | 89 | 1013.4 |
| 20260831080702 | 26 | 169 | 0.0 | 0.0 | 0.00 | 0.00 | 0.00 | 89 | 1013.5 |
| 20260831080604 | 26 | 169 | 0.0 | 0.0 | 0.00 | 0.00 | 0.00 | 89 | 1013.4 |
| 20260831080503 | 26 | 169 | 0.0 | 0.0 | 0.00 | 0.00 | 0.00 | 89 | 1013.4 |
| 20260831080401 | 26 | 169 | 0.0 | 0.0 | 0.00 | 0.00 | 0.00 | 89 | 1013.4 |
| 20260831080303 | 26 | 169 | 0.0 | 0.0 | 0.00 | 0.00 | 0.00 | 89 | 1013.3 |
| 20260831080204 | 26 | 169 | 0.0 | 0.0 | 0.00 | 0.00 | 0.00 | 89 | 1013.4 |
| 20260831080003 | 26 | 169 | 0.0 | 0.0 | 0.00 | 0.00 | 0.00 | 89 | 1013.4 |
| 20260831075903 | 26 | 169 | 0.0 | 0.0 | 0.00 | 0.00 | 0.00 | 89 | 1013.4 |
| 20260831075802 | 26 | 169 | 0.0 | 0.0 | 0.00 | 0.00 | 0.00 | 88 | 1013.4 |
| 20260831075703 | 26 | 169 | 0.0 | 0.0 | 0.00 | 0.00 | 0.00 | 88 | 1013.4 |
| 20260831075603 | 26 | 169 | 0.0 | 0.0 | 0.00 | 0.00 | 0.00 | 88 | 1013.4 |
| 20260831075501 | 26 | 169 | 0.0 | 0.0 | 0.00 | 0.00 | 0.00 | 88 | 1013.4 |
| 20260831075402 | 26 | 169 | 0.0 | 0.0 | 0.00 | 0.00 | 0.00 | 88 | 1013.4 |
| 20260831075306 | 26 | 169 | 0.0 | 0.0 | 0.00 | 0.00 | 0.00 | 88 | 1013.4 |
| 20260831075203 | 27 | 169 | 0.0 | 0.0 | 0.00 | 0.00 | 0.00 | 88 | 1013.3 |
| 20260831075103 | 27 | 169 | 0.0 | 0.0 | 0.00 | 0.00 | 0.00 | 88 | 1013.4 |
| 20260831075004 | 27 | 169 | 0.0 | 0.0 | 0.00 | 0.00 | 0.00 | 88 | 1013.3 |
| 20260831074902 | 27 | 169 | 0.0 | 0.0 | 0.00 | 0.00 | 0.00 | 88 | 1013.4 |
| 20260831074802 | 27 | 169 | 0.0 | 0.0 | 0.00 | 0.00 | 0.00 | 88 | 1013.4 |
| 20260831074702 | 27 | 169 | 0.0 | 0.0 | 0.00 | 0.00 | 0.00 | 88 | 1013.3 |
| 20260831074603 | 27 | 169 | 0.0 | 0.0 | 0.00 | 0.00 | 0.00 | 88 | 1013.3 |
| 20260831074504 | 27 | 169 | 0.0 | 0.0 | 0.00 | 0.00 | 0.00 | 88 | 1013.4 |
| 20260831074401 | 27 | 169 | 0.0 | 0.0 | 0.00 | 0.00 | 0.00 | 87 | 1013.4 |
| 20260831074303 | 27 | 169 | 0.0 | 0.0 | 0.00 | 0.00 | 0.00 | 87 | 1013.4 |
| 20260831074202 | 27 | 169 | 0.0 | 1.6 | 0.00 | 0.00 | 0.00 | 87 | 1013.4 |
| 20260831074103 | 27 | 169 | 0.0 | 1.6 | 0.00 | 0.00 | 0.00 | 87 | 1013.4 |
| 20260831074002 | 27 | 169 | 0.0 | 1.6 | 0.00 | 0.00 | 0.00 | 86 | 1013.4 |
| 20260831073903 | 27 | 169 | 0.0 | 1.6 | 0.00 | 0.00 | 0.00 | 86 | 1013.5 |
| 20260831073802 | 27 | 169 | 0.0 | 3.2 | 0.00 | 0.00 | 0.00 | 86 | 1013.5 |
| 20260831073702 | 27 | 169 | 0.0 | 3.2 | 0.00 | 0.00 | 0.00 | 86 | 1013.5 |
| 20260831073604 | 27 | 169 | 0.0 | 3.2 | 0.00 | 0.00 | 0.00 | 86 | 1013.5 |
| 20260831073504 | 27 | 169 | 0.0 | 3.2 | 0.00 | 0.00 | 0.00 | 86 | 1013.4 |
| 20260831073402 | 27 | 169 | 0.0 | 3.2 | 0.00 | 0.00 | 0.00 | 86 | 1013.5 |
| 20260831073302 | 27 | 169 | 0.0 | 3.2 | 0.00 | 0.00 | 0.00 | 86 | 1013.5 |
| 20260831073203 | 27 | 169 | 0.0 | 3.2 | 0.00 | 0.00 | 0.00 | 86 | 1013.4 |
| 20260831073102 | 27 | 169 | 0.0 | 3.2 | 0.00 | 0.00 | 0.00 | 86 | 1013.4 |
| 20260831073004 | 27 | 62 | 0.0 | 3.2 | 0.00 | 0.00 | 0.00 | 86 | 1013.4 |
| 20260831072903 | 27 | 59 | 1.6 | 4.8 | 0.00 | 0.00 | 0.00 | 86 | 1013.4 |
| 20260831072802 | 27 | 59 | 1.6 | 4.8 | 0.00 | 0.00 | 0.00 | 86 | 1013.5 |
| 20260831072702 | 27 | 59 | 1.6 | 4.8 | 0.00 | 0.00 | 0.00 | 86 | 1013.3 |
| 20260831072603 | 27 | 58 | 0.0 | 4.8 | 0.00 | 0.00 | 0.00 | 86 | 1013.3 |
| 20260831072503 | 27 | 59 | 1.6 | 4.8 | 0.00 | 0.00 | 0.00 | 86 | 1013.4 |
| 20260831072403 | 27 | 59 | 1.6 | 4.8 | 0.00 | 0.00 | 0.00 | 86 | 1013.4 |
| 20260831072306 | 27 | 59 | 1.6 | 4.8 | 0.00 | 0.00 | 0.00 | 86 | 1013.4 |
| 20260831072203 | 27 | 59 | 1.6 | 4.8 | 0.00 | 0.00 | 0.00 | 86 | 1013.4 |
| 20260831072102 | 27 | 61 | 1.6 | 4.8 | 0.00 | 0.00 | 0.00 | 86 | 1013.4 |
| 20260831072003 | 27 | 58 | 1.6 | 4.8 | 0.00 | 0.00 | 0.00 | 86 | 1013.5 |
| 20260831071902 | 27 | 56 | 1.6 | 4.8 | 0.00 | 0.00 | 0.00 | 86 | 1013.5 |
| 20260831071803 | 27 | 56 | 1.6 | 4.8 | 0.00 | 0.00 | 0.00 | 86 | 1013.4 |
| 20260831071702 | 27 | 56 | 1.6 | 4.8 | 0.00 | 0.00 | 0.00 | 86 | 1013.4 |
| 20260831071602 | 27 | 58 | 1.6 | 6.4 | 0.00 | 0.00 | 0.00 | 86 | 1013.4 |
| 20260831071503 | 27 | 58 | 0.0 | 6.4 | 0.00 | 0.00 | 0.00 | 86 | 1013.4 |
| 20260831071403 | 27 | 62 | 0.0 | 6.4 | 0.00 | 0.00 | 0.00 | 86 | 1013.5 |
| 20260831071302 | 27 | 61 | 1.6 | 6.4 | 0.00 | 0.00 | 0.00 | 86 | 1013.4 |
| 20260831071204 | 27 | 62 | 0.0 | 6.4 | 0.00 | 0.00 | 0.00 | 86 | 1013.4 |
| 20260831071103 | 27 | 55 | 0.0 | 6.4 | 0.00 | 0.00 | 0.00 | 86 | 1013.4 |
| 20260831071003 | 27 | 54 | 0.0 | 6.4 | 0.00 | 0.00 | 0.00 | 86 | 1013.4 |
| 20260831070904 | 27 | 54 | 1.6 | 6.4 | 0.00 | 0.00 | 0.00 | 86 | 1013.4 |
| 20260831070803 | 27 | 63 | 1.6 | 6.4 | 0.00 | 0.00 | 0.00 | 86 | 1013.3 |
| 20260831070702 | 27 | 0 | 1.6 | 6.4 | 0.00 | 0.00 | 0.00 | 86 | 1013.4 |
| 20260831070601 | 27 | 56 | 0.0 | 0.0 | 0.00 | 0.00 | 0.00 | 87 | 1013.4 |
| 20260831070505 | 27 | 71 | 0.0 | 0.0 | 0.00 | 0.00 | 0.00 | 87 | 1013.4 |
| 20260831070403 | 27 | 72 | 0.0 | 0.0 | 0.00 | 0.00 | 0.00 | 87 | 1013.4 |
| 20260831070301 | 27 | 58 | 0.0 | 0.0 | 0.00 | 0.00 | 0.00 | 87 | 1013.3 |
| 20260831070202 | 27 | 55 | 0.0 | 0.0 | 0.00 | 0.00 | 0.00 | 87 | 1013.4 |
| 20260831070001 | 27 | 55 | 0.0 | 0.0 | 0.00 | 0.00 | 0.00 | 87 | 1013.4 |
| 20260831065901 | 27 | 55 | 0.0 | 0.0 | 0.00 | 0.00 | 0.00 | 87 | 1013.4 |
| 20260831065804 | 27 | 56 | 0.0 | 0.0 | 0.00 | 0.00 | 0.00 | 87 | 1013.5 |
| 20260831065702 | 27 | 56 | 0.0 | 0.0 | 0.00 | 0.00 | 0.00 | 87 | 1013.4 |
| 20260831065602 | 27 | 55 | 0.0 | 0.0 | 0.00 | 0.00 | 0.00 | 87 | 1013.4 |
| 20260831065504 | 27 | 148 | 0.0 | 0.0 | 0.00 | 0.00 | 0.00 | 86 | 1013.5 |
| 20260831065403 | 27 | 152 | 0.0 | 0.0 | 0.00 | 0.00 | 0.00 | 87 | 1013.4 |
| 20260831065306 | 27 | 152 | 0.0 | 0.0 | 0.00 | 0.00 | 0.00 | 87 | 1013.5 |
| 20260831065204 | 27 | 154 | 0.0 | 0.0 | 0.00 | 0.00 | 0.00 | 87 | 1013.4 |
| 20260831065104 | 27 | 154 | 0.0 | 0.0 | 0.00 | 0.00 | 0.00 | 86 | 1013.5 |
| 20260831065001 | 27 | 154 | 0.0 | 0.0 | 0.00 | 0.00 | 0.00 | 86 | 1013.5 |
| 20260831064901 | 27 | 154 | 0.0 | 0.0 | 0.00 | 0.00 | 0.00 | 86 | 1013.6 |
| 20260831064803 | 27 | 149 | 0.0 | 3.2 | 0.00 | 0.00 | 0.00 | 86 | 1013.5 |
| 20260831064703 | 27 | 149 | 0.0 | 3.2 | 0.00 | 0.00 | 0.00 | 86 | 1013.6 |
| 20260831064602 | 27 | 151 | 0.0 | 3.2 | 0.00 | 0.00 | 0.00 | 86 | 1013.5 |
| 20260831064502 | 27 | 157 | 0.0 | 3.2 | 0.00 | 0.00 | 0.00 | 86 | 1013.6 |
| 20260831064403 | 27 | 158 | 0.0 | 3.2 | 0.00 | 0.00 | 0.00 | 86 | 1013.6 |
| 20260831064302 | 27 | 158 | 0.0 | 3.2 | 0.00 | 0.00 | 0.00 | 86 | 1013.5 |
| 20260831064202 | 27 | 158 | 0.0 | 3.2 | 0.00 | 0.00 | 0.00 | 86 | 1013.5 |
| 20260831064104 | 27 | 158 | 0.0 | 3.2 | 0.00 | 0.00 | 0.00 | 86 | 1013.5 |
| 20260831064003 | 27 | 157 | 0.0 | 3.2 | 0.00 | 0.00 | 0.00 | 86 | 1013.6 |
| 20260831063903 | 27 | 157 | 1.6 | 3.2 | 0.00 | 0.00 | 0.00 | 86 | 1013.6 |
| 20260831063802 | 27 | 157 | 0.0 | 4.8 | 0.00 | 0.00 | 0.00 | 85 | 1013.6 |
| 20260831063702 | 27 | 138 | 1.6 | 6.4 | 0.00 | 0.00 | 0.00 | 85 | 1013.6 |
| 20260831063603 | 27 | 161 | 0.0 | 6.4 | 0.00 | 0.00 | 0.00 | 85 | 1013.7 |
| 20260831063502 | 27 | 162 | 0.0 | 6.4 | 0.00 | 0.00 | 0.00 | 85 | 1013.7 |
| 20260831063403 | 27 | 164 | 0.0 | 6.4 | 0.00 | 0.00 | 0.00 | 85 | 1013.6 |
| 20260831063302 | 27 | 164 | 1.6 | 6.4 | 0.00 | 0.00 | 0.00 | 85 | 1013.6 |
| 20260831063202 | 27 | 164 | 0.0 | 6.4 | 0.00 | 0.00 | 0.00 | 85 | 1013.6 |
| 20260831063103 | 27 | 164 | 0.0 | 6.4 | 0.00 | 0.00 | 0.00 | 85 | 1013.6 |
| 20260831063003 | 27 | 164 | 1.6 | 6.4 | 0.00 | 0.00 | 0.00 | 85 | 1013.5 |
| 20260831062903 | 27 | 164 | 3.2 | 6.4 | 0.00 | 0.00 | 0.00 | 85 | 1013.6 |
| 20260831062802 | 27 | 172 | 3.2 | 8.0 | 0.00 | 0.00 | 0.00 | 85 | 1013.6 |
| 20260831062703 | 27 | 175 | 0.0 | 8.0 | 0.00 | 0.00 | 0.00 | 85 | 1013.6 |
| 20260831062602 | 27 | 169 | 1.6 | 8.0 | 0.00 | 0.00 | 0.00 | 85 | 1013.6 |
| 20260831062502 | 27 | 171 | 3.2 | 8.0 | 0.00 | 0.00 | 0.00 | 85 | 1013.6 |
| 20260831062403 | 28 | 176 | 3.2 | 8.0 | 0.00 | 0.00 | 0.00 | 84 | 1013.5 |
| 20260831062305 | 28 | 171 | 3.2 | 8.0 | 0.00 | 0.00 | 0.00 | 84 | 1013.6 |
| 20260831062202 | 28 | 172 | 3.2 | 8.0 | 0.00 | 0.00 | 0.00 | 84 | 1013.6 |
| 20260831062102 | 28 | 173 | 4.8 | 8.0 | 0.00 | 0.00 | 0.00 | 84 | 1013.5 |
| 20260831062004 | 28 | 182 | 4.8 | 8.0 | 0.00 | 0.00 | 0.00 | 84 | 1013.6 |
| 20260831061902 | 28 | 173 | 4.8 | 8.0 | 0.00 | 0.00 | 0.00 | 84 | 1013.6 |
| 20260831061803 | 28 | 186 | 4.8 | 8.0 | 0.00 | 0.00 | 0.00 | 84 | 1013.6 |
| 20260831061703 | 28 | 182 | 3.2 | 8.0 | 0.00 | 0.00 | 0.00 | 84 | 1013.6 |
| 20260831061603 | 28 | 179 | 3.2 | 8.0 | 0.00 | 0.00 | 0.00 | 84 | 1013.6 |
| 20260831061503 | 28 | 159 | 3.2 | 8.0 | 0.00 | 0.00 | 0.00 | 84 | 1013.6 |
| 20260831061404 | 28 | 175 | 3.2 | 8.0 | 0.00 | 0.00 | 0.00 | 84 | 1013.5 |
| 20260831061302 | 28 | 183 | 3.2 | 8.0 | 0.00 | 0.00 | 0.00 | 84 | 1013.5 |
| 20260831061202 | 28 | 172 | 3.2 | 8.0 | 0.00 | 0.00 | 0.00 | 84 | 1013.6 |
| 20260831061102 | 28 | 168 | 3.2 | 8.0 | 0.00 | 0.00 | 0.00 | 84 | 1013.5 |
| 20260831061003 | 28 | 168 | 3.2 | 8.0 | 0.00 | 0.00 | 0.00 | 84 | 1013.5 |
| 20260831060902 | 28 | 196 | 3.2 | 8.0 | 0.00 | 0.00 | 0.00 | 84 | 1013.6 |
| 20260831060800 | 28 | 169 | 4.8 | 8.0 | 0.00 | 0.00 | 0.00 | 84 | 1013.6 |
| 20260831060659 | 28 | 165 | 3.2 | 8.0 | 0.00 | 0.00 | 0.00 | 84 | 1013.5 |
| 20260831060556 | 28 | 188 | 3.2 | 8.0 | 0.00 | 0.00 | 0.00 | 84 | 1013.6 |
| 20260831060455 | 28 | 179 | 3.2 | 8.0 | 0.00 | 0.00 | 0.00 | 84 | 1013.6 |
| 20260831060354 | 28 | 183 | 3.2 | 8.0 | 0.00 | 0.00 | 0.00 | 84 | 1013.6 |
| 20260831060252 | 28 | 169 | 3.2 | 8.0 | 0.00 | 0.00 | 0.00 | 84 | 1013.5 |
| 20260831060151 | 28 | 200 | 3.2 | 8.0 | 0.00 | 0.00 | 0.00 | 84 | 1013.6 |
| 20260831060051 | 28 | 188 | 3.2 | 8.0 | 0.00 | 0.00 | 0.00 | 84 | 1013.6 |
| 20260831055949 | 28 | 162 | 3.2 | 8.0 | 0.00 | 0.00 | 0.00 | 84 | 1013.5 |
| 20260831055846 | 28 | 172 | 3.2 | 8.0 | 0.00 | 0.00 | 0.00 | 84 | 1013.6 |
| 20260831055745 | 28 | 172 | 3.2 | 8.0 | 0.00 | 0.00 | 0.00 | 84 | 1013.5 |
| 20260831055643 | 28 | 165 | 3.2 | 8.0 | 0.00 | 0.00 | 0.00 | 84 | 1013.6 |
| 20260831055542 | 28 | 180 | 1.6 | 6.4 | 0.00 | 0.00 | 0.00 | 84 | 1013.6 |
| 20260831055442 | 28 | 158 | 3.2 | 6.4 | 0.00 | 0.00 | 0.00 | 84 | 1013.7 |
| 20260831055340 | 28 | 159 | 4.8 | 6.4 | 0.00 | 0.00 | 0.00 | 84 | 1013.6 |
| 20260831055238 | 28 | 169 | 4.8 | 6.4 | 0.00 | 0.00 | 0.00 | 84 | 1013.6 |
| 20260831055137 | 28 | 155 | 3.2 | 6.4 | 0.00 | 0.00 | 0.00 | 84 | 1013.6 |
| 20260831055035 | 28 | 173 | 3.2 | 6.4 | 0.00 | 0.00 | 0.00 | 84 | 1013.6 |
| 20260831054933 | 28 | 178 | 1.6 | 6.4 | 0.00 | 0.00 | 0.00 | 84 | 1013.6 |
| 20260831054831 | 28 | 185 | 3.2 | 6.4 | 0.00 | 0.00 | 0.00 | 84 | 1013.6 |
| 20260831054731 | 28 | 183 | 3.2 | 6.4 | 0.00 | 0.00 | 0.00 | 84 | 1013.6 |
| 20260831054631 | 28 | 178 | 3.2 | 6.4 | 0.00 | 0.00 | 0.00 | 84 | 1013.6 |
| 20260831054532 | 28 | 175 | 3.2 | 6.4 | 0.00 | 0.00 | 0.00 | 84 | 1013.6 |
| 20260831054431 | 28 | 173 | 3.2 | 6.4 | 0.00 | 0.00 | 0.00 | 84 | 1013.6 |
| 20260831054332 | 28 | 165 | 3.2 | 6.4 | 0.00 | 0.00 | 0.00 | 84 | 1013.6 |
| 20260831054234 | 28 | 173 | 3.2 | 6.4 | 0.00 | 0.00 | 0.00 | 84 | 1013.6 |
| 20260831054131 | 28 | 180 | 3.2 | 6.4 | 0.00 | 0.00 | 0.00 | 84 | 1013.7 |
| 20260831054032 | 28 | 183 | 3.2 | 6.4 | 0.00 | 0.00 | 0.00 | 84 | 1013.7 |
| 20260831053931 | 28 | 180 | 3.2 | 6.4 | 0.00 | 0.00 | 0.00 | 84 | 1013.7 |
| 20260831053833 | 28 | 185 | 3.2 | 6.4 | 0.00 | 0.00 | 0.00 | 84 | 1013.7 |
| 20260831053731 | 28 | 144 | 1.6 | 6.4 | 0.00 | 0.00 | 0.00 | 84 | 1013.6 |
| 20260831053632 | 28 | 141 | 1.6 | 6.4 | 0.00 | 0.00 | 0.00 | 84 | 1013.6 |
| 20260831053533 | 28 | 138 | 1.6 | 6.4 | 0.00 | 0.00 | 0.00 | 84 | 1013.7 |
| 20260831053432 | 28 | 135 | 3.2 | 6.4 | 0.00 | 0.00 | 0.00 | 85 | 1013.7 |
| 20260831053331 | 27 | 142 | 3.2 | 6.4 | 0.00 | 0.00 | 0.00 | 84 | 1013.6 |
| 20260831053228 | 27 | 173 | 3.2 | 4.8 | 0.00 | 0.00 | 0.00 | 84 | 1013.7 |
| 20260831053125 | 27 | 169 | 3.2 | 4.8 | 0.00 | 0.00 | 0.00 | 84 | 1013.6 |
| 20260831053026 | 27 | 118 | 3.2 | 4.8 | 0.00 | 0.00 | 0.00 | 84 | 1013.6 |
| 20260831052925 | 27 | 124 | 1.6 | 8.0 | 0.00 | 0.00 | 0.00 | 84 | 1013.6 |
| 20260831052822 | 27 | 123 | 1.6 | 8.0 | 0.00 | 0.00 | 0.00 | 84 | 1013.6 |
| 20260831052721 | 28 | 118 | 1.6 | 8.0 | 0.00 | 0.00 | 0.00 | 84 | 1013.6 |
| 20260831052620 | 28 | 138 | 1.6 | 8.0 | 0.00 | 0.00 | 0.00 | 84 | 1013.5 |
| 20260831052520 | 28 | 141 | 0.0 | 8.0 | 0.00 | 0.00 | 0.00 | 84 | 1013.5 |
| 20260831052420 | 28 | 142 | 0.0 | 8.0 | 0.00 | 0.00 | 0.00 | 84 | 1013.6 |
| 20260831052320 | 28 | 142 | 1.6 | 8.0 | 0.00 | 0.00 | 0.00 | 84 | 1013.5 |
| 20260831052221 | 28 | 144 | 1.6 | 8.0 | 0.00 | 0.00 | 0.00 | 84 | 1013.5 |
| 20260831052120 | 28 | 147 | 3.2 | 8.0 | 0.00 | 0.00 | 0.00 | 84 | 1013.6 |
| 20260831052020 | 28 | 176 | 1.6 | 8.0 | 0.00 | 0.00 | 0.00 | 84 | 1013.5 |
| 20260831051919 | 28 | 147 | 1.6 | 8.0 | 0.00 | 0.00 | 0.00 | 84 | 1013.6 |
| 20260831051819 | 28 | 151 | 3.2 | 8.0 | 0.00 | 0.00 | 0.00 | 84 | 1013.5 |
| 20260831051721 | 28 | 147 | 3.2 | 8.0 | 0.00 | 0.00 | 0.00 | 84 | 1013.5 |
| 20260831051621 | 28 | 149 | 3.2 | 8.0 | 0.00 | 0.00 | 0.00 | 84 | 1013.5 |
| 20260831051519 | 28 | 131 | 3.2 | 8.0 | 0.00 | 0.00 | 0.00 | 84 | 1013.5 |
| 20260831051419 | 28 | 183 | 1.6 | 8.0 | 0.00 | 0.00 | 0.00 | 84 | 1013.5 |
| 20260831051321 | 28 | 135 | 1.6 | 6.4 | 0.00 | 0.00 | 0.00 | 84 | 1013.5 |
| 20260831051220 | 28 | 134 | 3.2 | 6.4 | 0.00 | 0.00 | 0.00 | 84 | 1013.4 |
| 20260831051119 | 28 | 131 | 3.2 | 6.4 | 0.00 | 0.00 | 0.00 | 84 | 1013.4 |
| 20260831051020 | 28 | 140 | 3.2 | 6.4 | 0.00 | 0.00 | 0.00 | 84 | 1013.5 |
| 20260831050921 | 28 | 121 | 3.2 | 6.4 | 0.00 | 0.00 | 0.00 | 84 | 1013.5 |
| 20260831050819 | 28 | 107 | 3.2 | 6.4 | 0.00 | 0.00 | 0.00 | 84 | 1013.5 |
| 20260831050719 | 28 | 148 | 3.2 | 6.4 | 0.00 | 0.00 | 0.00 | 84 | 1013.4 |
| 20260831050621 | 28 | 131 | 3.2 | 6.4 | 0.00 | 0.00 | 0.00 | 84 | 1013.4 |
| 20260831050519 | 28 | 148 | 3.2 | 6.4 | 0.00 | 0.00 | 0.00 | 84 | 1013.4 |
| 20260831050419 | 28 | 138 | 3.2 | 6.4 | 0.00 | 0.00 | 0.00 | 84 | 1013.4 |
| 20260831050320 | 28 | 140 | 1.6 | 6.4 | 0.00 | 0.00 | 0.00 | 84 | 1013.4 |
| 20260831050222 | 28 | 140 | 1.6 | 4.8 | 0.00 | 0.00 | 0.00 | 84 | 1013.4 |
| 20260831050119 | 28 | 124 | 1.6 | 4.8 | 0.00 | 0.00 | 0.00 | 84 | 1013.4 |
| 20260831050019 | 28 | 121 | 1.6 | 8.0 | 0.00 | 0.00 | 0.00 | 84 | 1013.3 |
| 20260831045919 | 28 | 121 | 1.6 | 8.0 | 0.00 | 0.00 | 0.00 | 83 | 1013.3 |
| 20260831045820 | 28 | 141 | 0.0 | 8.0 | 0.00 | 0.00 | 0.00 | 83 | 1013.4 |
| 20260831045719 | 28 | 144 | 0.0 | 8.0 | 0.00 | 0.00 | 0.00 | 83 | 1013.4 |
| 20260831045619 | 28 | 145 | 0.0 | 8.0 | 0.00 | 0.00 | 0.00 | 83 | 1013.4 |
| 20260831045518 | 28 | 145 | 0.0 | 8.0 | 0.00 | 0.00 | 0.00 | 83 | 1013.5 |
| 20260831045418 | 28 | 171 | 0.0 | 8.0 | 0.00 | 0.00 | 0.00 | 83 | 1013.4 |
| 20260831045320 | 28 | 173 | 0.0 | 8.0 | 0.00 | 0.00 | 0.00 | 83 | 1013.4 |
| 20260831045219 | 28 | 176 | 3.2 | 8.0 | 0.00 | 0.00 | 0.00 | 83 | 1013.4 |
| 20260831045119 | 28 | 183 | 3.2 | 8.0 | 0.00 | 0.00 | 0.00 | 83 | 1013.4 |
| 20260831045018 | 28 | 138 | 0.0 | 4.8 | 0.00 | 0.00 | 0.00 | 83 | 1013.4 |
| 20260831044919 | 28 | 161 | 0.0 | 4.8 | 0.00 | 0.00 | 0.00 | 83 | 1013.3 |
| 20260831044819 | 28 | 161 | 1.6 | 4.8 | 0.00 | 0.00 | 0.00 | 83 | 1013.4 |
| 20260831044720 | 28 | 161 | 1.6 | 4.8 | 0.00 | 0.00 | 0.00 | 82 | 1013.4 |
| 20260831044620 | 28 | 148 | 0.0 | 4.8 | 0.00 | 0.00 | 0.00 | 82 | 1013.4 |
| 20260831044519 | 28 | 157 | 1.6 | 4.8 | 0.00 | 0.00 | 0.00 | 82 | 1013.4 |
| 20260831044418 | 28 | 158 | 1.6 | 6.4 | 0.00 | 0.00 | 0.00 | 82 | 1013.4 |
| 20260831044319 | 28 | 137 | 0.0 | 9.7 | 0.00 | 0.00 | 0.00 | 82 | 1013.4 |
| 20260831044219 | 28 | 137 | 1.6 | 11.3 | 0.00 | 0.00 | 0.00 | 82 | 1013.4 |
| 20260831044119 | 28 | 147 | 1.6 | 11.3 | 0.00 | 0.00 | 0.00 | 82 | 1013.4 |
| 20260831044019 | 28 | 135 | 1.6 | 11.3 | 0.00 | 0.00 | 0.00 | 82 | 1013.4 |
| 20260831043919 | 28 | 94 | 1.6 | 11.3 | 0.00 | 0.00 | 0.00 | 82 | 1013.3 |
| 20260831043819 | 28 | 94 | 1.6 | 11.3 | 0.00 | 0.00 | 0.00 | 82 | 1013.3 |
| 20260831043719 | 28 | 76 | 1.6 | 11.3 | 0.00 | 0.00 | 0.00 | 82 | 1013.4 |
| 20260831043620 | 28 | 72 | 3.2 | 11.3 | 0.00 | 0.00 | 0.00 | 82 | 1013.3 |
| 20260831043519 | 28 | 113 | 3.2 | 11.3 | 0.00 | 0.00 | 0.00 | 82 | 1013.3 |
| 20260831043418 | 28 | 164 | 4.8 | 11.3 | 0.00 | 0.00 | 0.00 | 82 | 1013.3 |
| 20260831043318 | 28 | 152 | 6.4 | 11.3 | 0.00 | 0.00 | 0.00 | 82 | 1013.2 |
| 20260831043218 | 28 | 125 | 4.8 | 9.7 | 0.00 | 0.00 | 0.00 | 82 | 1013.1 |
| 20260831043118 | 28 | 134 | 3.2 | 9.7 | 0.00 | 0.00 | 0.00 | 82 | 1013.3 |
| 20260831043018 | 28 | 192 | 3.2 | 9.7 | 0.00 | 0.00 | 0.00 | 82 | 1013.3 |
| 20260831042918 | 28 | 169 | 4.8 | 9.7 | 0.00 | 0.00 | 0.00 | 82 | 1013.2 |
| 20260831042819 | 28 | 200 | 3.2 | 9.7 | 0.00 | 0.00 | 0.00 | 82 | 1013.3 |
| 20260831042718 | 28 | 178 | 3.2 | 9.7 | 0.00 | 0.00 | 0.00 | 82 | 1013.3 |
| 20260831042619 | 28 | 134 | 4.8 | 9.7 | 0.00 | 0.00 | 0.00 | 82 | 1013.3 |
| 20260831042519 | 28 | 180 | 4.8 | 9.7 | 0.00 | 0.00 | 0.00 | 81 | 1013.3 |
| 20260831042418 | 28 | 127 | 4.8 | 9.7 | 0.00 | 0.00 | 0.00 | 81 | 1013.3 |
| 20260831042319 | 28 | 147 | 3.2 | 8.0 | 0.00 | 0.00 | 0.00 | 81 | 1013.2 |
| 20260831042218 | 28 | 171 | 3.2 | 8.0 | 0.00 | 0.00 | 0.00 | 81 | 1013.3 |
| 20260831042119 | 28 | 109 | 3.2 | 9.7 | 0.00 | 0.00 | 0.00 | 81 | 1013.2 |
| 20260831042018 | 28 | 185 | 3.2 | 9.7 | 0.00 | 0.00 | 0.00 | 81 | 1013.2 |
| 20260831041918 | 28 | 176 | 4.8 | 9.7 | 0.00 | 0.00 | 0.00 | 81 | 1013.2 |
| 20260831041819 | 28 | 165 | 4.8 | 9.7 | 0.00 | 0.00 | 0.00 | 81 | 1013.1 |
| 20260831041719 | 28 | 157 | 4.8 | 9.7 | 0.00 | 0.00 | 0.00 | 81 | 1013.2 |
| 20260831041618 | 28 | 151 | 6.4 | 9.7 | 0.00 | 0.00 | 0.00 | 81 | 1013.2 |
| 20260831041519 | 28 | 165 | 4.8 | 9.7 | 0.00 | 0.00 | 0.00 | 81 | 1013.2 |
| 20260831041420 | 28 | 116 | 3.2 | 9.7 | 0.00 | 0.00 | 0.00 | 81 | 1013.2 |
| 20260831041318 | 28 | 135 | 3.2 | 9.7 | 0.00 | 0.00 | 0.00 | 81 | 1013.2 |
| 20260831041219 | 28 | 172 | 4.8 | 9.7 | 0.00 | 0.00 | 0.00 | 81 | 1013.2 |
| 20260831041119 | 28 | 127 | 4.8 | 9.7 | 0.00 | 0.00 | 0.00 | 81 | 1013.2 |
| 20260831041019 | 28 | 176 | 4.8 | 9.7 | 0.00 | 0.00 | 0.00 | 81 | 1013.2 |
| 20260831040918 | 28 | 104 | 4.8 | 9.7 | 0.00 | 0.00 | 0.00 | 81 | 1013.2 |
| 20260831040819 | 28 | 125 | 4.8 | 9.7 | 0.00 | 0.00 | 0.00 | 80 | 1013.2 |
| 20260831040719 | 28 | 168 | 3.2 | 8.0 | 0.00 | 0.00 | 0.00 | 80 | 1013.2 |
| 20260831040617 | 28 | 245 | 3.2 | 9.7 | 0.00 | 0.00 | 0.00 | 80 | 1013.1 |
| 20260831040518 | 28 | 148 | 3.2 | 9.7 | 0.00 | 0.00 | 0.00 | 80 | 1013.2 |
| 20260831040419 | 28 | 162 | 1.6 | 9.7 | 0.00 | 0.00 | 0.00 | 80 | 1013.1 |
| 20260831040318 | 28 | 128 | 1.6 | 9.7 | 0.00 | 0.00 | 0.00 | 80 | 1013.2 |
| 20260831040217 | 28 | 120 | 1.6 | 9.7 | 0.00 | 0.00 | 0.00 | 80 | 1013.1 |
| 20260831040118 | 28 | 118 | 3.2 | 9.7 | 0.00 | 0.00 | 0.00 | 80 | 1013.1 |
| 20260831040020 | 28 | 197 | 4.8 | 9.7 | 0.00 | 0.00 | 0.00 | 80 | 1013.1 |
| 20260831035917 | 28 | 141 | 4.8 | 9.7 | 0.00 | 0.00 | 0.00 | 80 | 1013.1 |
| 20260831035818 | 28 | 180 | 4.8 | 9.7 | 0.00 | 0.00 | 0.00 | 80 | 1013.1 |
| 20260831035719 | 28 | 169 | 3.2 | 9.7 | 0.00 | 0.00 | 0.00 | 80 | 1013.1 |
| 20260831035618 | 28 | 165 | 3.2 | 8.0 | 0.00 | 0.00 | 0.00 | 80 | 1013.1 |
| 20260831035518 | 28 | 195 | 1.6 | 8.0 | 0.00 | 0.00 | 0.00 | 80 | 1013.1 |
| 20260831035417 | 28 | 152 | 1.6 | 8.0 | 0.00 | 0.00 | 0.00 | 80 | 1013.1 |
| 20260831035317 | 28 | 183 | 3.2 | 8.0 | 0.00 | 0.00 | 0.00 | 79 | 1013.1 |
| 20260831035218 | 28 | 147 | 3.2 | 8.0 | 0.00 | 0.00 | 0.00 | 79 | 1013.1 |
| 20260831035118 | 28 | 135 | 3.2 | 8.0 | 0.00 | 0.00 | 0.00 | 79 | 1013.1 |
| 20260831035018 | 28 | 110 | 4.8 | 8.0 | 0.00 | 0.00 | 0.00 | 79 | 1013.0 |
| 20260831034918 | 28 | 195 | 4.8 | 8.0 | 0.00 | 0.00 | 0.00 | 79 | 1013.0 |
| 20260831034818 | 28 | 145 | 3.2 | 8.0 | 0.00 | 0.00 | 0.00 | 79 | 1013.0 |
| 20260831034718 | 28 | 186 | 3.2 | 8.0 | 0.00 | 0.00 | 0.00 | 79 | 1012.9 |
| 20260831034617 | 28 | 165 | 1.6 | 8.0 | 0.00 | 0.00 | 0.00 | 79 | 1013.0 |
| 20260831034519 | 28 | 116 | 1.6 | 6.4 | 0.00 | 0.00 | 0.00 | 79 | 1013.0 |
| 20260831034418 | 28 | 188 | 3.2 | 6.4 | 0.00 | 0.00 | 0.00 | 79 | 1013.0 |
| 20260831034319 | 28 | 190 | 1.6 | 6.4 | 0.00 | 0.00 | 0.00 | 79 | 1012.9 |
| 20260831034218 | 28 | 128 | 0.0 | 6.4 | 0.00 | 0.00 | 0.00 | 79 | 1013.0 |
| 20260831034117 | 28 | 140 | 0.0 | 6.4 | 0.00 | 0.00 | 0.00 | 79 | 1013.0 |
| 20260831034019 | 28 | 140 | 1.6 | 6.4 | 0.00 | 0.00 | 0.00 | 79 | 1013.0 |
| 20260831033918 | 28 | 138 | 1.6 | 6.4 | 0.00 | 0.00 | 0.00 | 79 | 1013.0 |
| 20260831033817 | 28 | 176 | 3.2 | 6.4 | 0.00 | 0.00 | 0.00 | 79 | 1012.9 |
| 20260831033717 | 28 | 166 | 0.0 | 6.4 | 0.00 | 0.00 | 0.00 | 79 | 1013.0 |
| 20260831033619 | 28 | 166 | 0.0 | 6.4 | 0.00 | 0.00 | 0.00 | 79 | 1013.0 |
| 20260831033517 | 28 | 166 | 0.0 | 6.4 | 0.00 | 0.00 | 0.00 | 79 | 1013.0 |
| 20260831033416 | 28 | 166 | 0.0 | 6.4 | 0.00 | 0.00 | 0.00 | 79 | 1013.0 |
| 20260831033318 | 28 | 168 | 0.0 | 6.4 | 0.00 | 0.00 | 0.00 | 78 | 1012.9 |
| 20260831033216 | 28 | 168 | 1.6 | 6.4 | 0.00 | 0.00 | 0.00 | 78 | 1012.9 |
| 20260831033118 | 28 | 171 | 3.2 | 6.4 | 0.00 | 0.00 | 0.00 | 78 | 1012.9 |
| 20260831033017 | 29 | 171 | 3.2 | 6.4 | 0.00 | 0.00 | 0.00 | 78 | 1012.9 |
| 20260831032919 | 29 | 100 | 1.6 | 9.7 | 0.00 | 0.00 | 0.00 | 78 | 1013.0 |
| 20260831032816 | 29 | 148 | 1.6 | 9.7 | 0.00 | 0.00 | 0.00 | 78 | 1012.9 |
| 20260831032717 | 29 | 149 | 3.2 | 9.7 | 0.00 | 0.00 | 0.00 | 78 | 1013.0 |
| 20260831032618 | 29 | 162 | 3.2 | 9.7 | 0.00 | 0.00 | 0.00 | 78 | 1012.9 |
| 20260831032516 | 29 | 168 | 3.2 | 9.7 | 0.00 | 0.00 | 0.00 | 78 | 1013.0 |
| 20260831032417 | 29 | 145 | 1.6 | 9.7 | 0.00 | 0.00 | 0.00 | 78 | 1012.9 |
| 20260831032316 | 29 | 142 | 1.6 | 9.7 | 0.00 | 0.00 | 0.00 | 78 | 1012.9 |
| 20260831032218 | 29 | 154 | 3.2 | 9.7 | 0.00 | 0.00 | 0.00 | 78 | 1012.8 |
| 20260831032117 | 29 | 173 | 3.2 | 9.7 | 0.00 | 0.00 | 0.00 | 78 | 1012.9 |
| 20260831032017 | 29 | 158 | 3.2 | 9.7 | 0.00 | 0.00 | 0.00 | 78 | 1012.8 |
| 20260831031919 | 29 | 141 | 3.2 | 9.7 | 0.00 | 0.00 | 0.00 | 78 | 1012.9 |
| 20260831031817 | 29 | 154 | 4.8 | 9.7 | 0.00 | 0.00 | 0.00 | 77 | 1012.8 |
| 20260831031719 | 29 | 147 | 3.2 | 9.7 | 0.00 | 0.00 | 0.00 | 77 | 1012.8 |
| 20260831031619 | 29 | 93 | 3.2 | 9.7 | 0.00 | 0.00 | 0.00 | 77 | 1012.9 |
| 20260831031517 | 29 | 128 | 3.2 | 9.7 | 0.00 | 0.00 | 0.00 | 77 | 1012.8 |
| 20260831031417 | 29 | 145 | 3.2 | 9.7 | 0.00 | 0.00 | 0.00 | 77 | 1012.9 |
| 20260831031316 | 29 | 152 | 3.2 | 11.3 | 0.00 | 0.00 | 0.00 | 77 | 1012.8 |
| 20260831031217 | 29 | 123 | 4.8 | 11.3 | 0.00 | 0.00 | 0.00 | 77 | 1012.9 |
| 20260831031118 | 29 | 164 | 6.4 | 11.3 | 0.00 | 0.00 | 0.00 | 77 | 1012.8 |
| 20260831031016 | 29 | 148 | 6.4 | 11.3 | 0.00 | 0.00 | 0.00 | 76 | 1012.8 |
| 20260831030916 | 29 | 113 | 4.8 | 11.3 | 0.00 | 0.00 | 0.00 | 76 | 1012.8 |
| 20260831030818 | 29 | 137 | 3.2 | 11.3 | 0.00 | 0.00 | 0.00 | 76 | 1012.7 |
| 20260831030717 | 29 | 135 | 4.8 | 11.3 | 0.00 | 0.00 | 0.00 | 76 | 1012.7 |
| 20260831030617 | 29 | 189 | 6.4 | 11.3 | 0.00 | 0.00 | 0.00 | 76 | 1012.8 |
| 20260831030518 | 29 | 152 | 6.4 | 14.5 | 0.00 | 0.00 | 0.00 | 76 | 1012.8 |
| 20260831030416 | 30 | 165 | 4.8 | 16.1 | 0.00 | 0.00 | 0.00 | 76 | 1012.7 |
| 20260831030317 | 30 | 140 | 4.8 | 16.1 | 0.00 | 0.00 | 0.00 | 75 | 1012.6 |
| 20260831030217 | 30 | 151 | 4.8 | 16.1 | 0.00 | 0.00 | 0.00 | 75 | 1012.6 |
| 20260831030117 | 30 | 159 | 3.2 | 16.1 | 0.00 | 0.00 | 0.00 | 75 | 1012.6 |
| 20260831030017 | 30 | 134 | 4.8 | 17.7 | 0.00 | 0.00 | 0.00 | 75 | 1012.6 |
| 20260831025917 | 30 | 151 | 6.4 | 17.7 | 0.00 | 0.00 | 0.00 | 75 | 1012.6 |
| 20260831025818 | 30 | 169 | 8.0 | 17.7 | 0.00 | 0.00 | 0.00 | 75 | 1012.5 |
| 20260831025716 | 30 | 151 | 8.0 | 17.7 | 0.00 | 0.00 | 0.00 | 75 | 1012.6 |
| 20260831025618 | 30 | 162 | 8.0 | 17.7 | 0.00 | 0.00 | 0.00 | 75 | 1012.5 |
| 20260831025517 | 30 | 190 | 6.4 | 17.7 | 0.00 | 0.00 | 0.00 | 75 | 1012.5 |
| 20260831025417 | 30 | 196 | 6.4 | 17.7 | 0.00 | 0.00 | 0.00 | 74 | 1012.4 |
| 20260831025316 | 30 | 216 | 8.0 | 17.7 | 0.00 | 0.00 | 0.00 | 74 | 1012.4 |
| 20260831025216 | 30 | 173 | 9.7 | 17.7 | 0.00 | 0.00 | 0.00 | 74 | 1012.4 |
| 20260831025117 | 30 | 165 | 8.0 | 17.7 | 0.00 | 0.00 | 0.00 | 74 | 1012.4 |
| 20260831025016 | 30 | 200 | 9.7 | 17.7 | 0.00 | 0.00 | 0.00 | 74 | 1012.4 |
| 20260831024918 | 30 | 192 | 11.3 | 17.7 | 0.00 | 0.00 | 0.00 | 74 | 1012.4 |
| 20260831024818 | 30 | 111 | 9.7 | 17.7 | 0.00 | 0.00 | 0.00 | 74 | 1012.4 |
| 20260831024716 | 30 | 183 | 9.7 | 17.7 | 0.00 | 0.00 | 0.00 | 74 | 1012.3 |
| 20260831024616 | 30 | 227 | 8.0 | 17.7 | 0.00 | 0.00 | 0.00 | 74 | 1012.4 |
| 20260831024516 | 30 | 203 | 6.4 | 14.5 | 0.00 | 0.00 | 0.00 | 74 | 1012.4 |
| 20260831024417 | 30 | 145 | 6.4 | 14.5 | 0.00 | 0.00 | 0.00 | 74 | 1012.4 |
| 20260831024316 | 30 | 96 | 4.8 | 11.3 | 0.00 | 0.00 | 0.00 | 74 | 1012.5 |
| 20260831024218 | 30 | 221 | 4.8 | 11.3 | 0.00 | 0.00 | 0.00 | 74 | 1012.5 |
| 20260831024117 | 30 | 164 | 4.8 | 11.3 | 0.00 | 0.00 | 0.00 | 74 | 1012.4 |
| 20260831024017 | 30 | 155 | 4.8 | 11.3 | 0.00 | 0.00 | 0.00 | 73 | 1012.4 |
| 20260831023916 | 30 | 133 | 4.8 | 11.3 | 0.00 | 0.00 | 0.00 | 73 | 1012.4 |
| 20260831023815 | 30 | 149 | 4.8 | 11.3 | 0.00 | 0.00 | 0.00 | 73 | 1012.4 |
| 20260831023717 | 30 | 137 | 4.8 | 9.7 | 0.00 | 0.00 | 0.00 | 73 | 1012.3 |
| 20260831023617 | 30 | 113 | 4.8 | 9.7 | 0.00 | 0.00 | 0.00 | 73 | 1012.4 |
| 20260831023516 | 30 | 130 | 4.8 | 9.7 | 0.00 | 0.00 | 0.00 | 73 | 1012.4 |
| 20260831023416 | 30 | 134 | 6.4 | 9.7 | 0.00 | 0.00 | 0.00 | 73 | 1012.4 |
| 20260831023317 | 30 | 148 | 6.4 | 9.7 | 0.00 | 0.00 | 0.00 | 73 | 1012.4 |
| 20260831023216 | 30 | 107 | 3.2 | 9.7 | 0.00 | 0.00 | 0.00 | 72 | 1012.3 |
| 20260831023116 | 30 | 80 | 3.2 | 9.7 | 0.00 | 0.00 | 0.00 | 72 | 1012.2 |
| 20260831023017 | 30 | 134 | 6.4 | 9.7 | 0.00 | 0.00 | 0.00 | 72 | 1012.3 |
| 20260831022916 | 30 | 159 | 4.8 | 9.7 | 0.00 | 0.00 | 0.00 | 72 | 1012.2 |
| 20260831022815 | 30 | 154 | 4.8 | 9.7 | 0.00 | 0.00 | 0.00 | 72 | 1012.2 |
| 20260831022716 | 30 | 118 | 4.8 | 9.7 | 0.00 | 0.00 | 0.00 | 72 | 1012.2 |
| 20260831022616 | 30 | 144 | 4.8 | 9.7 | 0.00 | 0.00 | 0.00 | 71 | 1012.3 |
| 20260831022515 | 30 | 89 | 4.8 | 9.7 | 0.00 | 0.00 | 0.00 | 71 | 1012.2 |
| 20260831022415 | 30 | 133 | 4.8 | 9.7 | 0.00 | 0.00 | 0.00 | 71 | 1012.2 |
| 20260831022315 | 30 | 128 | 4.8 | 9.7 | 0.00 | 0.00 | 0.00 | 71 | 1012.2 |
| 20260831022216 | 30 | 158 | 6.4 | 9.7 | 0.00 | 0.00 | 0.00 | 71 | 1012.1 |
| 20260831022114 | 30 | 131 | 3.2 | 9.7 | 0.00 | 0.00 | 0.00 | 71 | 1012.2 |
| 20260831022011 | 30 | 148 | 1.6 | 11.3 | 0.00 | 0.00 | 0.00 | 71 | 1012.1 |
| 20260831021910 | 30 | 131 | 1.6 | 11.3 | 0.00 | 0.00 | 0.00 | 71 | 1012.0 |
| 20260831021809 | 30 | 130 | 3.2 | 11.3 | 0.00 | 0.00 | 0.00 | 70 | 1012.1 |
| 20260831021707 | 30 | 144 | 3.2 | 11.3 | 0.00 | 0.00 | 0.00 | 70 | 1012.1 |
| 20260831021605 | 30 | 125 | 3.2 | 11.3 | 0.00 | 0.00 | 0.00 | 70 | 1012.0 |
| 20260831021505 | 30 | 155 | 6.4 | 11.3 | 0.00 | 0.00 | 0.00 | 70 | 1011.9 |
| 20260831021403 | 30 | 214 | 4.8 | 11.3 | 0.00 | 0.00 | 0.00 | 70 | 1011.9 |
| 20260831021302 | 30 | 100 | 4.8 | 14.5 | 0.00 | 0.00 | 0.00 | 70 | 1011.9 |
| 20260831021202 | 30 | 166 | 6.4 | 14.5 | 0.00 | 0.00 | 0.00 | 70 | 1011.9 |
| 20260831021104 | 30 | 138 | 6.4 | 17.7 | 0.00 | 0.00 | 0.00 | 70 | 1011.8 |
| 20260831021003 | 30 | 172 | 6.4 | 17.7 | 0.00 | 0.00 | 0.00 | 70 | 1011.9 |
| 20260831020903 | 30 | 171 | 4.8 | 17.7 | 0.00 | 0.00 | 0.00 | 70 | 1011.8 |
| 20260831020803 | 30 | 148 | 4.8 | 17.7 | 0.00 | 0.00 | 0.00 | 70 | 1011.9 |
| 20260831020703 | 30 | 195 | 3.2 | 17.7 | 0.00 | 0.00 | 0.00 | 70 | 1011.9 |
| 20260831020602 | 30 | 207 | 4.8 | 17.7 | 0.00 | 0.00 | 0.00 | 69 | 1011.9 |
| 20260831020502 | 30 | 134 | 8.0 | 17.7 | 0.00 | 0.00 | 0.00 | 69 | 1011.9 |
| 20260831020403 | 30 | 173 | 9.7 | 17.7 | 0.00 | 0.00 | 0.00 | 69 | 1012.0 |
| 20260831020303 | 30 | 148 | 9.7 | 17.7 | 0.00 | 0.00 | 0.00 | 69 | 1011.9 |
| 20260831020202 | 30 | 134 | 8.0 | 17.7 | 0.00 | 0.00 | 0.00 | 69 | 1011.8 |
| 20260831020003 | 30 | 169 | 6.4 | 17.7 | 0.00 | 0.00 | 0.00 | 69 | 1011.8 |
| 20260831015901 | 30 | 99 | 6.4 | 14.5 | 0.00 | 0.00 | 0.00 | 69 | 1011.8 |
| 20260831015802 | 30 | 61 | 4.8 | 14.5 | 0.00 | 0.00 | 0.00 | 69 | 1011.8 |
| 20260831015703 | 31 | 99 | 4.8 | 14.5 | 0.00 | 0.00 | 0.00 | 68 | 1011.8 |
| 20260831015602 | 31 | 131 | 6.4 | 14.5 | 0.00 | 0.00 | 0.00 | 68 | 1011.8 |
| 20260831015503 | 31 | 182 | 6.4 | 14.5 | 0.00 | 0.00 | 0.00 | 68 | 1011.7 |
| 20260831015404 | 31 | 199 | 6.4 | 14.5 | 0.00 | 0.00 | 0.00 | 68 | 1011.8 |
| 20260831015305 | 31 | 165 | 6.4 | 14.5 | 0.00 | 0.00 | 0.00 | 68 | 1011.7 |
| 20260831015202 | 31 | 140 | 6.4 | 14.5 | 0.00 | 0.00 | 0.00 | 68 | 1011.7 |
| 20260831015103 | 31 | 186 | 6.4 | 14.5 | 0.00 | 0.00 | 0.00 | 67 | 1011.7 |
| 20260831015003 | 31 | 176 | 6.4 | 14.5 | 0.00 | 0.00 | 0.00 | 67 | 1011.7 |
| 20260831014902 | 31 | 97 | 6.4 | 14.5 | 0.00 | 0.00 | 0.00 | 67 | 1011.7 |
| 20260831014802 | 31 | 135 | 4.8 | 14.5 | 0.00 | 0.00 | 0.00 | 66 | 1011.7 |
| 20260831014703 | 31 | 192 | 6.4 | 14.5 | 0.00 | 0.00 | 0.00 | 66 | 1011.6 |
| 20260831014602 | 31 | 104 | 4.8 | 14.5 | 0.00 | 0.00 | 0.00 | 66 | 1011.6 |
| 20260831014502 | 31 | 138 | 6.4 | 14.5 | 0.00 | 0.00 | 0.00 | 66 | 1011.7 |
| 20260831014403 | 31 | 165 | 6.4 | 14.5 | 0.00 | 0.00 | 0.00 | 66 | 1011.6 |
| 20260831014303 | 31 | 102 | 6.4 | 14.5 | 0.00 | 0.00 | 0.00 | 65 | 1011.7 |
| 20260831014201 | 31 | 169 | 4.8 | 11.3 | 0.00 | 0.00 | 0.00 | 65 | 1011.6 |
| 20260831014102 | 31 | 113 | 4.8 | 11.3 | 0.00 | 0.00 | 0.00 | 65 | 1011.7 |
| 20260831014003 | 31 | 161 | 4.8 | 11.3 | 0.00 | 0.00 | 0.00 | 65 | 1011.7 |
| 20260831013903 | 31 | 172 | 4.8 | 11.3 | 0.00 | 0.00 | 0.00 | 65 | 1011.6 |
| 20260831013802 | 31 | 147 | 3.2 | 11.3 | 0.00 | 0.00 | 0.00 | 65 | 1011.7 |
| 20260831013702 | 31 | 203 | 3.2 | 11.3 | 0.00 | 0.00 | 0.00 | 64 | 1011.6 |
| 20260831013602 | 31 | 158 | 4.8 | 11.3 | 0.00 | 0.00 | 0.00 | 64 | 1011.6 |
| 20260831013500 | 31 | 131 | 6.4 | 11.3 | 0.00 | 0.00 | 0.00 | 64 | 1011.7 |
| 20260831013359 | 31 | 155 | 6.4 | 11.3 | 0.00 | 0.00 | 0.00 | 64 | 1011.6 |
| 20260831013258 | 31 | 189 | 4.8 | 14.5 | 0.00 | 0.00 | 0.00 | 64 | 1011.6 |
| 20260831013155 | 31 | 182 | 3.2 | 14.5 | 0.00 | 0.00 | 0.00 | 64 | 1011.6 |
| 20260831013054 | 31 | 100 | 4.8 | 14.5 | 0.00 | 0.00 | 0.00 | 64 | 1011.6 |
| 20260831012953 | 31 | 133 | 4.8 | 14.5 | 0.00 | 0.00 | 0.00 | 64 | 1011.6 |
| 20260831012852 | 31 | 137 | 6.4 | 14.5 | 0.00 | 0.00 | 0.00 | 64 | 1011.6 |
| 20260831012751 | 31 | 138 | 6.4 | 14.5 | 0.00 | 0.00 | 0.00 | 64 | 1011.5 |
| 20260831012648 | 31 | 161 | 6.4 | 14.5 | 0.00 | 0.00 | 0.00 | 64 | 1011.6 |
| 20260831012547 | 31 | 130 | 6.4 | 14.5 | 0.00 | 0.00 | 0.00 | 63 | 1011.5 |
| 20260831012443 | 31 | 152 | 8.0 | 14.5 | 0.00 | 0.00 | 0.00 | 63 | 1011.6 |
| 20260831012340 | 31 | 158 | 6.4 | 14.5 | 0.00 | 0.00 | 0.00 | 63 | 1011.5 |
| 20260831012238 | 31 | 134 | 4.8 | 8.0 | 0.00 | 0.00 | 0.00 | 63 | 1011.5 |
| 20260831012137 | 31 | 159 | 4.8 | 8.0 | 0.00 | 0.00 | 0.00 | 63 | 1011.6 |
| 20260831012037 | 31 | 144 | 4.8 | 9.7 | 0.00 | 0.00 | 0.00 | 63 | 1011.5 |
| 20260831011934 | 31 | 159 | 3.2 | 14.5 | 0.00 | 0.00 | 0.00 | 62 | 1011.6 |
| 20260831011834 | 31 | 121 | 1.6 | 14.5 | 0.00 | 0.00 | 0.00 | 62 | 1011.5 |
| 20260831011732 | 31 | 135 | 3.2 | 14.5 | 0.00 | 0.00 | 0.00 | 62 | 1011.6 |
| 20260831011631 | 31 | 138 | 3.2 | 14.5 | 0.00 | 0.00 | 0.00 | 62 | 1011.6 |
| 20260831011531 | 31 | 149 | 3.2 | 14.5 | 0.00 | 0.00 | 0.00 | 62 | 1011.5 |
| 20260831011431 | 31 | 149 | 3.2 | 14.5 | 0.00 | 0.00 | 0.00 | 61 | 1011.5 |
| 20260831011332 | 31 | 144 | 3.2 | 14.5 | 0.00 | 0.00 | 0.00 | 61 | 1011.6 |
| 20260831011232 | 31 | 109 | 6.4 | 14.5 | 0.00 | 0.00 | 0.00 | 61 | 1011.5 |
| 20260831011131 | 31 | 130 | 8.0 | 14.5 | 0.00 | 0.00 | 0.00 | 61 | 1011.5 |
| 20260831011030 | 31 | 135 | 3.2 | 14.5 | 0.00 | 0.00 | 0.00 | 60 | 1011.5 |
| 20260831010931 | 31 | 179 | 3.2 | 9.7 | 0.00 | 0.00 | 0.00 | 60 | 1011.5 |
| 20260831010831 | 31 | 141 | 4.8 | 9.7 | 0.00 | 0.00 | 0.00 | 60 | 1011.6 |
| 20260831010731 | 31 | 116 | 4.8 | 9.7 | 0.00 | 0.00 | 0.00 | 60 | 1011.5 |
| 20260831010632 | 31 | 104 | 4.8 | 9.7 | 0.00 | 0.00 | 0.00 | 60 | 1011.5 |
| 20260831010532 | 31 | 99 | 4.8 | 9.7 | 0.00 | 0.00 | 0.00 | 60 | 1011.5 |
| 20260831010432 | 32 | 141 | 4.8 | 9.7 | 0.00 | 0.00 | 0.00 | 60 | 1011.5 |
| 20260831010332 | 32 | 102 | 3.2 | 9.7 | 0.00 | 0.00 | 0.00 | 59 | 1011.5 |
| 20260831010231 | 32 | 133 | 3.2 | 14.5 | 0.00 | 0.00 | 0.00 | 59 | 1011.5 |
| 20260831010132 | 32 | 113 | 4.8 | 14.5 | 0.00 | 0.00 | 0.00 | 59 | 1011.5 |
| 20260831010032 | 32 | 140 | 6.4 | 14.5 | 0.00 | 0.00 | 0.00 | 59 | 1011.5 |
| 20260831005931 | 32 | 94 | 6.4 | 14.5 | 0.00 | 0.00 | 0.00 | 59 | 1011.4 |
| 20260831005832 | 32 | 103 | 6.4 | 14.5 | 0.00 | 0.00 | 0.00 | 58 | 1011.4 |
| 20260831005732 | 32 | 124 | 6.4 | 14.5 | 0.00 | 0.00 | 0.00 | 58 | 1011.4 |
| 20260831005631 | 32 | 123 | 6.4 | 20.9 | 0.00 | 0.00 | 0.00 | 58 | 1011.4 |
| 20260831005533 | 32 | 80 | 6.4 | 20.9 | 0.00 | 0.00 | 0.00 | 58 | 1011.4 |
| 20260831005431 | 32 | 128 | 6.4 | 20.9 | 0.00 | 0.00 | 0.00 | 58 | 1011.4 |
| 20260831005331 | 32 | 110 | 6.4 | 20.9 | 0.00 | 0.00 | 0.00 | 57 | 1011.4 |
| 20260831005230 | 32 | 103 | 6.4 | 20.9 | 0.00 | 0.00 | 0.00 | 57 | 1011.4 |
| 20260831005132 | 32 | 121 | 4.8 | 20.9 | 0.00 | 0.00 | 0.00 | 57 | 1011.4 |
| 20260831005032 | 32 | 94 | 4.8 | 20.9 | 0.00 | 0.00 | 0.00 | 57 | 1011.3 |
| 20260831004931 | 32 | 128 | 6.4 | 20.9 | 0.00 | 0.00 | 0.00 | 57 | 1011.4 |
| 20260831004832 | 32 | 145 | 9.7 | 20.9 | 0.00 | 0.00 | 0.00 | 57 | 1011.4 |
| 20260831004732 | 32 | 151 | 9.7 | 20.9 | 0.00 | 0.00 | 0.00 | 56 | 1011.4 |
| 20260831004631 | 32 | 114 | 6.4 | 16.1 | 0.00 | 0.00 | 0.00 | 56 | 1011.4 |
| 20260831004531 | 32 | 116 | 4.8 | 16.1 | 0.00 | 0.00 | 0.00 | 56 | 1011.4 |
| 20260831004431 | 32 | 83 | 6.4 | 16.1 | 0.00 | 0.00 | 0.00 | 56 | 1011.4 |
| 20260831004331 | 32 | 135 | 9.7 | 16.1 | 0.00 | 0.00 | 0.00 | 56 | 1011.3 |
| 20260831004231 | 32 | 109 | 6.4 | 16.1 | 0.00 | 0.00 | 0.00 | 55 | 1011.4 |
| 20260831004132 | 32 | 100 | 6.4 | 14.5 | 0.00 | 0.00 | 0.00 | 55 | 1011.4 |
| 20260831004031 | 32 | 164 | 8.0 | 14.5 | 0.00 | 0.00 | 0.00 | 55 | 1011.4 |
| 20260831003931 | 32 | 104 | 8.0 | 17.7 | 0.00 | 0.00 | 0.00 | 55 | 1011.4 |
| 20260831003832 | 32 | 117 | 6.4 | 17.7 | 0.00 | 0.00 | 0.00 | 55 | 1011.4 |
| 20260831003731 | 32 | 133 | 6.4 | 17.7 | 0.00 | 0.00 | 0.00 | 54 | 1011.4 |
| 20260831003631 | 32 | 110 | 6.4 | 19.3 | 0.00 | 0.00 | 0.00 | 54 | 1011.4 |
| 20260831003531 | 32 | 124 | 6.4 | 19.3 | 0.00 | 0.00 | 0.00 | 54 | 1011.4 |
| 20260831003431 | 32 | 106 | 8.0 | 19.3 | 0.00 | 0.00 | 0.00 | 54 | 1011.4 |
| 20260831003332 | 33 | 116 | 8.0 | 19.3 | 0.00 | 0.00 | 0.00 | 53 | 1011.4 |
| 20260831003232 | 33 | 97 | 8.0 | 19.3 | 0.00 | 0.00 | 0.00 | 53 | 1011.4 |
| 20260831003132 | 33 | 148 | 11.3 | 19.3 | 0.00 | 0.00 | 0.00 | 53 | 1011.4 |
| 20260831003032 | 33 | 107 | 11.3 | 19.3 | 0.00 | 0.00 | 0.00 | 52 | 1011.4 |
| 20260831002931 | 33 | 104 | 8.0 | 19.3 | 0.00 | 0.00 | 0.00 | 52 | 1011.3 |
| 20260831002833 | 33 | 111 | 9.7 | 19.3 | 0.00 | 0.00 | 0.00 | 51 | 1011.4 |
| 20260831002732 | 33 | 127 | 8.0 | 19.3 | 0.00 | 0.00 | 0.00 | 51 | 1011.4 |
| 20260831002633 | 33 | 87 | 8.0 | 16.1 | 0.00 | 0.00 | 0.00 | 51 | 1011.4 |
| 20260831002531 | 33 | 128 | 6.4 | 17.7 | 0.00 | 0.00 | 0.00 | 51 | 1011.4 |
| 20260831002431 | 33 | 78 | 4.8 | 17.7 | 0.00 | 0.00 | 0.00 | 50 | 1011.4 |
| 20260831002332 | 33 | 99 | 8.0 | 17.7 | 0.00 | 0.00 | 0.00 | 49 | 1011.5 |
| 20260831002230 | 33 | 111 | 8.0 | 17.7 | 0.00 | 0.00 | 0.00 | 49 | 1011.4 |
| 20260831002128 | 33 | 113 | 8.0 | 17.7 | 0.00 | 0.00 | 0.00 | 49 | 1011.5 |
| 20260831002027 | 33 | 176 | 9.7 | 17.7 | 0.00 | 0.00 | 0.00 | 48 | 1011.5 |
| 20260831001924 | 33 | 102 | 8.0 | 19.3 | 0.00 | 0.00 | 0.00 | 49 | 1011.4 |
| 20260831001823 | 33 | 103 | 9.7 | 19.3 | 0.00 | 0.00 | 0.00 | 49 | 1011.4 |
| 20260831001719 | 33 | 140 | 11.3 | 19.3 | 0.00 | 0.00 | 0.00 | 49 | 1011.4 |
| 20260831001616 | 33 | 96 | 11.3 | 19.3 | 0.00 | 0.00 | 0.00 | 49 | 1011.4 |
| 20260831001517 | 33 | 118 | 11.3 | 19.3 | 0.00 | 0.00 | 0.00 | 49 | 1011.5 |
| 20260831001414 | 33 | 89 | 12.9 | 19.3 | 0.00 | 0.00 | 0.00 | 49 | 1011.4 |
| 20260831001313 | 33 | 131 | 12.9 | 19.3 | 0.00 | 0.00 | 0.00 | 49 | 1011.4 |
| 20260831001213 | 33 | 137 | 11.3 | 19.3 | 0.00 | 0.00 | 0.00 | 50 | 1011.5 |
| 20260831001113 | 33 | 104 | 9.7 | 19.3 | 0.00 | 0.00 | 0.00 | 50 | 1011.4 |
| 20260831001012 | 33 | 96 | 8.0 | 19.3 | 0.00 | 0.00 | 0.00 | 50 | 1011.4 |
| 20260831000913 | 33 | 116 | 8.0 | 19.3 | 0.00 | 0.00 | 0.00 | 50 | 1011.3 |
| 20260831000815 | 33 | 148 | 8.0 | 19.3 | 0.00 | 0.00 | 0.00 | 50 | 1011.4 |
| 20260831000713 | 33 | 161 | 8.0 | 19.3 | 0.00 | 0.00 | 0.00 | 51 | 1011.4 |
| 20260831000612 | 33 | 94 | 9.7 | 19.3 | 0.00 | 0.00 | 0.00 | 51 | 1011.4 |
| 20260831000512 | 33 | 94 | 8.0 | 19.3 | 0.00 | 0.00 | 0.00 | 51 | 1011.4 |
| 20260831000412 | 33 | 138 | 9.7 | 19.3 | 0.00 | 0.00 | 0.00 | 52 | 1011.3 |
| 20260831000312 | 33 | 148 | 9.7 | 22.5 | 0.00 | 0.00 | 0.00 | 52 | 1011.3 |
| 20260831000212 | 33 | 79 | 9.7 | 22.5 | 0.00 | 0.00 | 0.00 | 53 | 1011.3 |
| 20260831000114 | 33 | 106 | 9.7 | 22.5 | 0.00 | 0.00 | 0.00 | 53 | 1011.3 |
| 20260831000012 | 33 | 102 | 8.0 | 22.5 | 0.00 | 0.00 | 0.00 | 54 | 1011.3 |
| 20260830235912 | 33 | 176 | 6.4 | 22.5 | 0.00 | 0.00 | 0.00 | 54 | 1011.3 |
| 20260830235815 | 33 | 90 | 8.0 | 22.5 | 0.00 | 0.00 | 0.00 | 54 | 1011.4 |
| 20260830235712 | 33 | 151 | 9.7 | 22.5 | 0.00 | 0.00 | 0.00 | 54 | 1011.3 |
| 20260830235612 | 33 | 128 | 12.9 | 22.5 | 0.00 | 0.00 | 0.00 | 53 | 1011.4 |
| 20260830235512 | 33 | 102 | 16.1 | 22.5 | 0.00 | 0.00 | 0.00 | 54 | 1011.3 |
| 20260830235413 | 33 | 120 | 11.3 | 22.5 | 0.00 | 0.00 | 0.00 | 54 | 1011.3 |
| 20260830235313 | 33 | 117 | 9.7 | 22.5 | 0.00 | 0.00 | 0.00 | 54 | 1011.3 |
| 20260830235213 | 33 | 147 | 9.7 | 22.5 | 0.00 | 0.00 | 0.00 | 53 | 1011.3 |
| 20260830235113 | 33 | 96 | 8.0 | 22.5 | 0.00 | 0.00 | 0.00 | 54 | 1011.2 |
| 20260830235012 | 33 | 138 | 8.0 | 22.5 | 0.00 | 0.00 | 0.00 | 53 | 1011.3 |
| 20260830234912 | 33 | 120 | 11.3 | 22.5 | 0.00 | 0.00 | 0.00 | 53 | 1011.3 |
| 20260830234812 | 33 | 137 | 14.5 | 22.5 | 0.00 | 0.00 | 0.00 | 53 | 1011.2 |
| 20260830234715 | 33 | 80 | 12.9 | 22.5 | 0.00 | 0.00 | 0.00 | 53 | 1011.3 |
| 20260830234611 | 34 | 103 | 11.3 | 20.9 | 0.00 | 0.00 | 0.00 | 52 | 1011.3 |
| 20260830234511 | 34 | 124 | 12.9 | 20.9 | 0.00 | 0.00 | 0.00 | 51 | 1011.3 |
| 20260830234413 | 34 | 111 | 12.9 | 20.9 | 0.00 | 0.00 | 0.00 | 51 | 1011.3 |
| 20260830234313 | 34 | 123 | 9.7 | 19.3 | 0.00 | 0.00 | 0.00 | 50 | 1011.3 |
| 20260830234212 | 34 | 123 | 8.0 | 19.3 | 0.00 | 0.00 | 0.00 | 50 | 1011.3 |
| 20260830234113 | 34 | 117 | 8.0 | 19.3 | 0.00 | 0.00 | 0.00 | 50 | 1011.2 |
| 20260830234014 | 34 | 109 | 9.7 | 19.3 | 0.00 | 0.00 | 0.00 | 50 | 1011.2 |
| 20260830233913 | 34 | 152 | 9.7 | 19.3 | 0.00 | 0.00 | 0.00 | 50 | 1011.2 |
| 20260830233812 | 34 | 140 | 8.0 | 19.3 | 0.00 | 0.00 | 0.00 | 50 | 1011.2 |
| 20260830233713 | 34 | 120 | 8.0 | 19.3 | 0.00 | 0.00 | 0.00 | 50 | 1011.2 |
| 20260830233611 | 34 | 104 | 8.0 | 19.3 | 0.00 | 0.00 | 0.00 | 49 | 1011.2 |
| 20260830233511 | 35 | 195 | 6.4 | 19.3 | 0.00 | 0.00 | 0.00 | 49 | 1011.2 |
| 20260830233412 | 35 | 106 | 6.4 | 19.3 | 0.00 | 0.00 | 0.00 | 49 | 1011.1 |
| 20260830233313 | 35 | 89 | 8.0 | 19.3 | 0.00 | 0.00 | 0.00 | 48 | 1011.2 |
| 20260830233212 | 35 | 104 | 8.0 | 19.3 | 0.00 | 0.00 | 0.00 | 48 | 1011.2 |
| 20260830233111 | 35 | 141 | 11.3 | 19.3 | 0.00 | 0.00 | 0.00 | 48 | 1011.1 |
| 20260830233012 | 35 | 116 | 11.3 | 19.3 | 0.00 | 0.00 | 0.00 | 47 | 1011.2 |
| 20260830232912 | 35 | 80 | 8.0 | 19.3 | 0.00 | 0.00 | 0.00 | 48 | 1011.2 |
| 20260830232811 | 35 | 93 | 8.0 | 19.3 | 0.00 | 0.00 | 0.00 | 48 | 1011.2 |
| 20260830232712 | 35 | 137 | 8.0 | 25.7 | 0.00 | 0.00 | 0.00 | 48 | 1011.2 |
| 20260830232613 | 35 | 100 | 8.0 | 25.7 | 0.00 | 0.00 | 0.00 | 48 | 1011.3 |
| 20260830232512 | 35 | 196 | 9.7 | 25.7 | 0.00 | 0.00 | 0.00 | 48 | 1011.3 |
| 20260830232412 | 35 | 96 | 8.0 | 25.7 | 0.00 | 0.00 | 0.00 | 49 | 1011.3 |
| 20260830232312 | 35 | 73 | 8.0 | 25.7 | 0.00 | 0.00 | 0.00 | 50 | 1011.2 |
| 20260830232212 | 35 | 100 | 9.7 | 25.7 | 0.00 | 0.00 | 0.00 | 50 | 1011.3 |
| 20260830232111 | 35 | 128 | 9.7 | 25.7 | 0.00 | 0.00 | 0.00 | 51 | 1011.2 |
| 20260830232011 | 35 | 135 | 9.7 | 25.7 | 0.00 | 0.00 | 0.00 | 51 | 1011.2 |
| 20260830231912 | 35 | 117 | 11.3 | 25.7 | 0.00 | 0.00 | 0.00 | 51 | 1011.2 |
| 20260830231811 | 35 | 154 | 11.3 | 25.7 | 0.00 | 0.00 | 0.00 | 51 | 1011.2 |
| 20260830231711 | 35 | 186 | 6.4 | 17.7 | 0.00 | 0.00 | 0.00 | 52 | 1011.1 |
| 20260830231612 | 35 | 104 | 6.4 | 17.7 | 0.00 | 0.00 | 0.00 | 52 | 1011.1 |
| 20260830231512 | 35 | 121 | 6.4 | 22.5 | 0.00 | 0.00 | 0.00 | 53 | 1011.1 |
| 20260830231411 | 35 | 161 | 9.7 | 22.5 | 0.00 | 0.00 | 0.00 | 53 | 1011.2 |
| 20260830231312 | 35 | 80 | 9.7 | 22.5 | 0.00 | 0.00 | 0.00 | 53 | 1011.1 |
| 20260830231212 | 35 | 103 | 9.7 | 22.5 | 0.00 | 0.00 | 0.00 | 52 | 1011.2 |
| 20260830231112 | 35 | 86 | 9.7 | 22.5 | 0.00 | 0.00 | 0.00 | 52 | 1011.1 |
| 20260830231012 | 35 | 100 | 8.0 | 22.5 | 0.00 | 0.00 | 0.00 | 52 | 1011.2 |
| 20260830230912 | 35 | 241 | 9.7 | 22.5 | 0.00 | 0.00 | 0.00 | 52 | 1011.2 |
| 20260830230811 | 35 | 106 | 11.3 | 22.5 | 0.00 | 0.00 | 0.00 | 52 | 1011.2 |
| 20260830230712 | 35 | 107 | 14.5 | 22.5 | 0.00 | 0.00 | 0.00 | 52 | 1011.3 |
| 20260830230612 | 35 | 92 | 14.5 | 22.5 | 0.00 | 0.00 | 0.00 | 52 | 1011.3 |
| 20260830230511 | 35 | 96 | 9.7 | 20.9 | 0.00 | 0.00 | 0.00 | 52 | 1011.2 |
| 20260830230411 | 35 | 107 | 8.0 | 17.7 | 0.00 | 0.00 | 0.00 | 52 | 1011.2 |
| 20260830230311 | 35 | 110 | 8.0 | 17.7 | 0.00 | 0.00 | 0.00 | 52 | 1011.2 |
| 20260830230213 | 35 | 116 | 9.7 | 17.7 | 0.00 | 0.00 | 0.00 | 51 | 1011.3 |
| 20260830230111 | 35 | 121 | 11.3 | 17.7 | 0.00 | 0.00 | 0.00 | 51 | 1011.2 |
| 20260830230010 | 35 | 113 | 8.0 | 17.7 | 0.00 | 0.00 | 0.00 | 51 | 1011.3 |
| 20260830225911 | 35 | 120 | 8.0 | 17.7 | 0.00 | 0.00 | 0.00 | 52 | 1011.2 |
| 20260830225810 | 35 | 148 | 8.0 | 17.7 | 0.00 | 0.00 | 0.00 | 51 | 1011.2 |
| 20260830225711 | 35 | 131 | 8.0 | 17.7 | 0.00 | 0.00 | 0.00 | 51 | 1011.2 |
| 20260830225611 | 35 | 89 | 9.7 | 17.7 | 0.00 | 0.00 | 0.00 | 51 | 1011.1 |
| 20260830225512 | 35 | 114 | 11.3 | 17.7 | 0.00 | 0.00 | 0.00 | 51 | 1011.3 |
| 20260830225411 | 35 | 99 | 11.3 | 17.7 | 0.00 | 0.00 | 0.00 | 51 | 1011.2 |
| 20260830225312 | 35 | 120 | 9.7 | 17.7 | 0.00 | 0.00 | 0.00 | 50 | 1011.2 |
| 20260830225212 | 35 | 190 | 8.0 | 17.7 | 0.00 | 0.00 | 0.00 | 50 | 1011.2 |
| 20260830225112 | 35 | 192 | 9.7 | 17.7 | 0.00 | 0.00 | 0.00 | 50 | 1011.1 |
| 20260830225012 | 35 | 149 | 9.7 | 17.7 | 0.00 | 0.00 | 0.00 | 50 | 1011.2 |
| 20260830224912 | 35 | 123 | 9.7 | 17.7 | 0.00 | 0.00 | 0.00 | 50 | 1011.1 |
| 20260830224812 | 36 | 200 | 8.0 | 16.1 | 0.00 | 0.00 | 0.00 | 51 | 1011.2 |
| 20260830224711 | 36 | 117 | 6.4 | 16.1 | 0.00 | 0.00 | 0.00 | 51 | 1011.2 |
| 20260830224610 | 36 | 155 | 6.4 | 16.1 | 0.00 | 0.00 | 0.00 | 50 | 1011.2 |
| 20260830224511 | 35 | 162 | 6.4 | 16.1 | 0.00 | 0.00 | 0.00 | 50 | 1011.2 |
| 20260830224411 | 36 | 100 | 6.4 | 16.1 | 0.00 | 0.00 | 0.00 | 50 | 1011.2 |
| 20260830224310 | 36 | 87 | 6.4 | 16.1 | 0.00 | 0.00 | 0.00 | 50 | 1011.2 |
| 20260830224211 | 36 | 120 | 4.8 | 19.3 | 0.00 | 0.00 | 0.00 | 50 | 1011.1 |
| 20260830224112 | 36 | 162 | 6.4 | 19.3 | 0.00 | 0.00 | 0.00 | 49 | 1011.2 |
| 20260830224010 | 36 | 182 | 6.4 | 19.3 | 0.00 | 0.00 | 0.00 | 50 | 1011.2 |
| 20260830223910 | 36 | 158 | 8.0 | 19.3 | 0.00 | 0.00 | 0.00 | 50 | 1011.2 |
| 20260830223811 | 36 | 109 | 6.4 | 20.9 | 0.00 | 0.00 | 0.00 | 50 | 1011.2 |
| 20260830223711 | 36 | 114 | 6.4 | 20.9 | 0.00 | 0.00 | 0.00 | 50 | 1011.1 |
| 20260830223611 | 35 | 87 | 6.4 | 20.9 | 0.00 | 0.00 | 0.00 | 49 | 1011.2 |
| 20260830223510 | 35 | 144 | 6.4 | 20.9 | 0.00 | 0.00 | 0.00 | 50 | 1011.2 |
| 20260830223412 | 35 | 185 | 9.7 | 20.9 | 0.00 | 0.00 | 0.00 | 50 | 1011.1 |
| 20260830223310 | 35 | 154 | 11.3 | 20.9 | 0.00 | 0.00 | 0.00 | 50 | 1011.1 |
| 20260830223210 | 35 | 116 | 9.7 | 20.9 | 0.00 | 0.00 | 0.00 | 50 | 1011.1 |
| 20260830223112 | 35 | 92 | 9.7 | 20.9 | 0.00 | 0.00 | 0.00 | 50 | 1011.1 |
| 20260830223010 | 36 | 137 | 14.5 | 20.9 | 0.00 | 0.00 | 0.00 | 50 | 1011.2 |
| 20260830222910 | 36 | 117 | 14.5 | 20.9 | 0.00 | 0.00 | 0.00 | 50 | 1011.1 |
| 20260830222811 | 36 | 92 | 9.7 | 20.9 | 0.00 | 0.00 | 0.00 | 49 | 1011.1 |
| 20260830222712 | 36 | 149 | 6.4 | 16.1 | 0.00 | 0.00 | 0.00 | 50 | 1011.1 |
| 20260830222611 | 36 | 73 | 6.4 | 16.1 | 0.00 | 0.00 | 0.00 | 50 | 1011.1 |
| 20260830222510 | 36 | 133 | 6.4 | 16.1 | 0.00 | 0.00 | 0.00 | 50 | 1011.1 |
| 20260830222412 | 36 | 65 | 6.4 | 16.1 | 0.00 | 0.00 | 0.00 | 50 | 1011.1 |
| 20260830222310 | 36 | 182 | 6.4 | 16.1 | 0.00 | 0.00 | 0.00 | 50 | 1011.1 |
| 20260830222211 | 36 | 138 | 8.0 | 16.1 | 0.00 | 0.00 | 0.00 | 49 | 1011.1 |
| 20260830222111 | 36 | 142 | 8.0 | 16.1 | 0.00 | 0.00 | 0.00 | 49 | 1011.1 |
| 20260830222010 | 36 | 109 | 9.7 | 17.7 | 0.00 | 0.00 | 0.00 | 49 | 1011.2 |
| 20260830221909 | 36 | 147 | 11.3 | 17.7 | 0.00 | 0.00 | 0.00 | 49 | 1011.1 |
| 20260830221810 | 36 | 92 | 9.7 | 17.7 | 0.00 | 0.00 | 0.00 | 48 | 1011.2 |
| 20260830221710 | 36 | 87 | 9.7 | 17.7 | 0.00 | 0.00 | 0.00 | 49 | 1011.1 |
| 20260830221610 | 36 | 107 | 8.0 | 17.7 | 0.00 | 0.00 | 0.00 | 49 | 1011.2 |
| 20260830221509 | 36 | 113 | 6.4 | 17.7 | 0.00 | 0.00 | 0.00 | 49 | 1011.1 |
| 20260830221411 | 36 | 130 | 8.0 | 17.7 | 0.00 | 0.00 | 0.00 | 49 | 1011.1 |
| 20260830221311 | 36 | 130 | 8.0 | 22.5 | 0.00 | 0.00 | 0.00 | 49 | 1011.1 |
| 20260830221211 | 36 | 130 | 8.0 | 22.5 | 0.00 | 0.00 | 0.00 | 49 | 1011.1 |
| 20260830221111 | 36 | 130 | 8.0 | 22.5 | 0.00 | 0.00 | 0.00 | 49 | 1011.1 |
| 20260830221012 | 36 | 106 | 6.4 | 22.5 | 0.00 | 0.00 | 0.00 | 48 | 1011.2 |
| 20260830220910 | 36 | 114 | 6.4 | 22.5 | 0.00 | 0.00 | 0.00 | 48 | 1011.1 |
| 20260830220809 | 36 | 166 | 8.0 | 22.5 | 0.00 | 0.00 | 0.00 | 48 | 1011.1 |
| 20260830220710 | 36 | 152 | 8.0 | 22.5 | 0.00 | 0.00 | 0.00 | 48 | 1011.2 |